KC5DAQ-22 Weather Reports


time (UTC)temp
C
wind
direction
speed
KPH
gust
KPH
rain 1hr
cm
rain 24hr
cm
rain mn
cm
humidity
%
barometer
mb
20260906151854 30 334 3.2 6.4 0.00 0.00 0.00 83 1012.3
20260906151754 30 7 0.0 4.8 0.00 0.00 0.00 83 1012.3
20260906151655 30 13 0.0 6.4 0.00 0.00 0.00 83 1012.3
20260906151554 30 13 0.0 8.0 0.00 0.00 0.00 82 1012.3
20260906151454 30 13 0.0 8.0 0.00 0.00 0.00 82 1012.3
20260906151354 30 13 0.0 8.0 0.00 0.00 0.00 82 1012.2
20260906151253 30 13 1.6 8.0 0.00 0.00 0.00 82 1012.2
20260906151154 30 14 1.6 8.0 0.00 0.00 0.00 82 1012.3
20260906151053 30 13 1.6 8.0 0.00 0.00 0.00 82 1012.3
20260906150954 30 14 1.6 8.0 0.00 0.00 0.00 81 1012.2
20260906150853 30 14 3.2 8.0 0.00 0.00 0.00 81 1012.3
20260906150755 30 14 6.4 8.0 0.00 0.00 0.00 81 1012.3
20260906150654 31 14 6.4 8.0 0.00 0.00 0.00 80 1012.2
20260906150554 31 14 6.4 8.0 0.00 0.00 0.00 80 1012.1
20260906150455 31 11 6.4 8.0 0.00 0.00 0.00 80 1012.2
20260906150354 31 8 4.8 8.0 0.00 0.00 0.00 81 1012.2
20260906150253 31 345 3.2 6.4 0.00 0.00 0.00 81 1012.2
20260906150155 31 35 4.8 6.4 0.00 0.00 0.00 82 1012.2
20260906150053 30 82 4.8 6.4 0.00 0.00 0.00 82 1012.1
20260906145955 30 85 3.2 6.4 0.00 0.00 0.00 82 1012.2
20260906145855 30 83 4.8 8.0 0.00 0.00 0.00 81 1012.2
20260906145754 30 83 4.8 8.0 0.00 0.00 0.00 81 1012.1
20260906145653 30 92 3.2 8.0 0.00 0.00 0.00 82 1012.2
20260906145556 30 99 3.2 8.0 0.00 0.00 0.00 82 1012.1
20260906145453 30 151 3.2 8.0 0.00 0.00 0.00 82 1012.1
20260906145353 30 164 3.2 8.0 0.00 0.00 0.00 83 1012.1
20260906145255 30 134 1.6 8.0 0.00 0.00 0.00 84 1012.2
20260906145154 30 103 3.2 8.0 0.00 0.00 0.00 83 1012.2
20260906145055 30 103 4.8 8.0 0.00 0.00 0.00 83 1012.2
20260906144953 30 104 4.8 8.0 0.00 0.00 0.00 83 1012.2
20260906144854 30 82 3.2 8.0 0.00 0.00 0.00 83 1012.1
20260906144753 30 56 3.2 8.0 0.00 0.00 0.00 83 1012.2
20260906144654 30 56 4.8 8.0 0.00 0.00 0.00 84 1012.2
20260906144555 30 82 4.8 8.0 0.00 0.00 0.00 84 1012.2
20260906144453 30 76 3.2 8.0 0.00 0.00 0.00 84 1012.1
20260906144354 30 76 3.2 8.0 0.00 0.00 0.00 84 1012.1
20260906144255 30 76 4.8 8.0 0.00 0.00 0.00 84 1012.2
20260906144153 30 85 4.8 8.0 0.00 0.00 0.00 84 1012.2
20260906144052 30 87 4.8 8.0 0.00 0.00 0.00 84 1012.2
20260906143953 30 75 6.4 8.0 0.00 0.00 0.00 84 1012.2
20260906143855 30 73 6.4 8.0 0.00 0.00 0.00 84 1012.3
20260906143754 30 44 4.8 8.0 0.00 0.00 0.00 84 1012.3
20260906143653 30 32 3.2 8.0 0.00 0.00 0.00 85 1012.3
20260906143553 29 32 3.2 8.0 0.00 0.00 0.00 85 1012.3
20260906143454 29 31 4.8 8.0 0.00 0.00 0.00 85 1012.3
20260906143353 29 65 4.8 8.0 0.00 0.00 0.00 85 1012.3
20260906143252 29 65 6.4 8.0 0.00 0.00 0.00 85 1012.3
20260906143153 29 83 6.4 8.0 0.00 0.00 0.00 85 1012.3
20260906143053 29 83 6.4 8.0 0.00 0.00 0.00 85 1012.3
20260906142953 29 79 6.4 8.0 0.00 0.00 0.00 85 1012.2
20260906142852 29 85 8.0 8.0 0.00 0.00 0.00 85 1012.3
20260906142753 29 63 6.4 8.0 0.00 0.00 0.00 85 1012.2
20260906142653 29 89 4.8 8.0 0.00 0.00 0.00 85 1012.2
20260906142552 29 83 4.8 8.0 0.00 0.00 0.00 85 1012.2
20260906142454 29 82 4.8 8.0 0.00 0.00 0.00 85 1012.3
20260906142352 29 73 6.4 8.0 0.00 0.00 0.00 85 1012.3
20260906142252 29 72 6.4 8.0 0.00 0.00 0.00 85 1012.2
20260906142153 29 75 6.4 8.0 0.00 0.00 0.00 85 1012.3
20260906142053 29 71 6.4 8.0 0.00 0.00 0.00 85 1012.2
20260906141952 29 61 6.4 8.0 0.00 0.00 0.00 86 1012.2
20260906141852 29 80 4.8 8.0 0.00 0.00 0.00 86 1012.3
20260906141753 29 63 4.8 8.0 0.00 0.00 0.00 86 1012.3
20260906141653 29 63 4.8 8.0 0.00 0.00 0.00 86 1012.2
20260906141553 29 39 4.8 8.0 0.00 0.00 0.00 86 1012.3
20260906141453 29 39 4.8 8.0 0.00 0.00 0.00 86 1012.3
20260906141353 29 35 4.8 8.0 0.00 0.00 0.00 87 1012.3
20260906141252 29 25 3.2 8.0 0.00 0.00 0.00 87 1012.3
20260906141151 29 38 1.6 8.0 0.00 0.00 0.00 87 1012.3
20260906141051 28 38 1.6 8.0 0.00 0.00 0.00 88 1012.3
20260906140954 28 48 0.0 8.0 0.00 0.00 0.00 88 1012.2
20260906140852 28 48 1.6 8.0 0.00 0.00 0.00 88 1012.2
20260906140754 28 48 4.8 8.0 0.00 0.00 0.00 88 1012.3
20260906140653 28 48 6.4 8.0 0.00 0.00 0.00 88 1012.3
20260906140553 28 42 6.4 8.0 0.00 0.00 0.00 88 1012.2
20260906140452 28 34 6.4 8.0 0.00 0.00 0.00 88 1012.3
20260906140353 28 34 4.8 8.0 0.00 0.00 0.00 88 1012.2
20260906140251 28 30 4.8 6.4 0.00 0.00 0.00 88 1012.2
20260906140151 28 28 4.8 6.4 0.00 0.00 0.00 89 1012.2
20260906140053 28 28 3.2 6.4 0.00 0.00 0.00 89 1012.1
20260906135952 28 28 1.6 4.8 0.00 0.00 0.00 89 1012.2
20260906135853 28 28 1.6 4.8 0.00 0.00 0.00 90 1012.2
20260906135754 28 28 3.2 4.8 0.00 0.00 0.00 90 1012.2
20260906135652 28 28 1.6 4.8 0.00 0.00 0.00 90 1012.2
20260906135552 28 56 0.0 4.8 0.00 0.00 0.00 90 1012.2
20260906135451 28 56 1.6 4.8 0.00 0.00 0.00 91 1012.2
20260906135352 28 56 1.6 4.8 0.00 0.00 0.00 91 1012.2
20260906135252 28 56 0.0 4.8 0.00 0.00 0.00 91 1012.2
20260906135151 27 56 0.0 4.8 0.00 0.00 0.00 91 1012.1
20260906135052 27 56 0.0 4.8 0.00 0.00 0.00 92 1012.1
20260906134953 27 56 0.0 4.8 0.00 0.00 0.00 92 1012.1
20260906134852 27 56 0.0 4.8 0.00 0.00 0.00 92 1012.2
20260906134751 27 56 1.6 6.4 0.00 0.00 0.00 92 1012.1
20260906134654 27 56 1.6 6.4 0.00 0.00 0.00 93 1012.2
20260906134552 27 56 1.6 6.4 0.00 0.00 0.00 93 1012.2
20260906134451 27 56 3.2 6.4 0.00 0.00 0.00 93 1012.1
20260906134351 27 56 3.2 6.4 0.00 0.00 0.00 93 1012.2
20260906134251 27 56 1.6 6.4 0.00 0.00 0.00 93 1012.2
20260906134152 27 56 1.6 6.4 0.00 0.00 0.00 93 1012.2
20260906134052 27 56 3.2 6.4 0.00 0.00 0.00 94 1012.2
20260906133953 27 56 4.8 6.4 0.00 0.00 0.00 94 1012.2
20260906133852 27 56 4.8 6.4 0.00 0.00 0.00 94 1012.2
20260906133751 27 55 4.8 6.4 0.00 0.00 0.00 94 1012.2
20260906133651 27 55 4.8 6.4 0.00 0.00 0.00 94 1012.2
20260906133553 27 55 4.8 6.4 0.00 0.00 0.00 94 1012.1
20260906133452 26 47 4.8 6.4 0.00 0.00 0.00 95 1012.1
20260906133351 26 45 4.8 6.4 0.00 0.00 0.00 95 1012.1
20260906133251 26 45 4.8 6.4 0.00 0.00 0.00 95 1012.1
20260906133151 26 45 4.8 6.4 0.00 0.00 0.00 95 1012.1
20260906133052 26 45 3.2 6.4 0.00 0.00 0.00 95 1012.1
20260906132952 26 45 1.6 6.4 0.00 0.00 0.00 95 1012.0
20260906132851 26 45 3.2 4.8 0.00 0.00 0.00 95 1012.1
20260906132751 26 45 1.6 4.8 0.00 0.00 0.00 95 1012.0
20260906132651 26 45 0.0 4.8 0.00 0.00 0.00 96 1011.9
20260906132553 26 45 1.6 4.8 0.00 0.00 0.00 96 1011.9
20260906132451 26 45 1.6 6.4 0.00 0.00 0.00 96 1012.0
20260906132352 26 45 1.6 6.4 0.00 0.00 0.00 96 1011.9
20260906132252 26 45 1.6 6.4 0.00 0.00 0.00 96 1011.9
20260906132154 26 45 3.2 6.4 0.00 0.00 0.00 96 1011.8
20260906132051 26 45 3.2 6.4 0.00 0.00 0.00 96 1011.9
20260906131951 26 45 3.2 6.4 0.00 0.00 0.00 96 1011.8
20260906131853 26 45 3.2 6.4 0.00 0.00 0.00 96 1011.8
20260906131752 26 45 3.2 6.4 0.00 0.00 0.00 96 1011.8
20260906131651 26 45 4.8 6.4 0.00 0.00 0.00 96 1011.8
20260906131551 26 45 4.8 6.4 0.00 0.00 0.00 96 1011.8
20260906131451 26 41 3.2 6.4 0.00 0.00 0.00 96 1011.9
20260906131351 26 72 3.2 6.4 0.00 0.00 0.00 96 1011.8
20260906131251 26 72 4.8 6.4 0.00 0.00 0.00 96 1011.8
20260906131152 26 73 4.8 6.4 0.00 0.00 0.00 96 1011.8
20260906131051 26 73 4.8 6.4 0.00 0.00 0.00 96 1011.8
20260906130951 26 73 4.8 6.4 0.00 0.00 0.00 96 1011.8
20260906130851 26 93 4.8 6.4 0.00 0.00 0.00 96 1011.8
20260906130750 26 93 3.2 6.4 0.00 0.00 0.00 96 1011.8
20260906130652 26 38 3.2 6.4 0.00 0.00 0.00 97 1011.8
20260906130551 26 38 4.8 6.4 0.00 0.00 0.00 97 1011.8
20260906130453 26 38 3.2 6.4 0.00 0.00 0.00 97 1011.7
20260906130351 26 38 4.8 6.4 0.00 0.00 0.00 97 1011.8
20260906130250 26 39 3.2 6.4 0.00 0.00 0.00 97 1011.8
20260906130150 26 41 3.2 8.0 0.00 0.00 0.00 97 1011.7
20260906130052 26 42 3.2 8.0 0.00 0.00 0.00 97 1011.8
20260906125950 26 42 3.2 8.0 0.00 0.00 0.00 97 1011.8
20260906125850 25 42 3.2 8.0 0.00 0.00 0.00 97 1011.8
20260906125752 25 44 3.2 8.0 0.00 0.00 0.00 97 1011.7
20260906125650 25 44 3.2 8.0 0.00 0.00 0.00 97 1011.7
20260906125551 25 62 1.6 8.0 0.00 0.00 0.00 97 1011.7
20260906125452 25 62 3.2 8.0 0.00 0.00 0.00 97 1011.7
20260906125351 25 63 4.8 8.0 0.00 0.00 0.00 97 1011.6
20260906125250 25 80 4.8 8.0 0.00 0.00 0.00 97 1011.6
20260906125150 25 49 3.2 6.4 0.00 0.00 0.00 97 1011.5
20260906125052 25 44 3.2 6.4 0.00 0.00 0.00 97 1011.5
20260906124951 25 44 3.2 6.4 0.00 0.00 0.00 97 1011.6
20260906124850 25 44 3.2 8.0 0.00 0.00 0.00 97 1011.6
20260906124753 25 44 4.8 8.0 0.00 0.00 0.00 97 1011.5
20260906124650 25 45 3.2 9.7 0.00 0.00 0.00 97 1011.5
20260906124551 25 69 3.2 9.7 0.00 0.00 0.00 97 1011.5
20260906124451 25 69 1.6 9.7 0.00 0.00 0.00 97 1011.5
20260906124352 25 69 1.6 9.7 0.00 0.00 0.00 97 1011.5
20260906124250 25 69 3.2 9.7 0.00 0.00 0.00 97 1011.5
20260906124150 25 69 3.2 9.7 0.00 0.00 0.00 97 1011.5
20260906124051 25 31 4.8 9.7 0.00 0.00 0.00 97 1011.4
20260906123950 25 31 6.4 9.7 0.00 0.00 0.00 97 1011.4
20260906123851 25 28 6.4 9.7 0.00 0.00 0.00 97 1011.4
20260906123752 25 28 4.8 9.7 0.00 0.00 0.00 97 1011.4
20260906123652 25 23 4.8 6.4 0.00 0.00 0.00 97 1011.4
20260906123549 25 31 4.8 6.4 0.00 0.00 0.00 97 1011.4
20260906123449 25 27 3.2 6.4 0.00 0.00 0.00 97 1011.5
20260906123352 25 27 3.2 8.0 0.00 0.00 0.00 97 1011.4
20260906123250 25 27 3.2 8.0 0.00 0.00 0.00 97 1011.4
20260906123149 25 25 3.2 8.0 0.00 0.00 0.00 97 1011.5
20260906123050 25 25 3.2 8.0 0.00 0.00 0.00 97 1011.4
20260906122951 25 25 3.2 8.0 0.00 0.00 0.00 97 1011.4
20260906122849 25 24 3.2 8.0 0.00 0.00 0.00 97 1011.4
20260906122749 25 24 3.2 8.0 0.00 0.00 0.00 97 1011.4
20260906122651 25 23 3.2 8.0 0.00 0.00 0.00 97 1011.3
20260906122549 25 31 4.8 8.0 0.00 0.00 0.00 97 1011.3
20260906122449 25 17 6.4 8.0 0.00 0.00 0.00 97 1011.2
20260906122350 25 16 4.8 8.0 0.00 0.00 0.00 97 1011.1
20260906122250 25 14 4.8 8.0 0.00 0.00 0.00 97 1011.1
20260906122149 25 13 4.8 8.0 0.00 0.00 0.00 97 1011.1
20260906122049 25 14 4.8 8.0 0.00 0.00 0.00 97 1011.1
20260906121951 25 13 3.2 8.0 0.00 0.00 0.00 97 1011.1
20260906121850 25 13 3.2 6.4 0.00 0.00 0.00 96 1011.1
20260906121749 25 13 3.2 6.4 0.00 0.00 0.00 97 1011.0
20260906121651 25 13 1.6 6.4 0.00 0.00 0.00 96 1011.1
20260906121550 25 13 3.2 6.4 0.00 0.00 0.00 96 1011.0
20260906121450 25 13 3.2 6.4 0.00 0.00 0.00 96 1011.1
20260906121350 25 11 3.2 6.4 0.00 0.00 0.00 96 1011.1
20260906121250 25 13 3.2 6.4 0.00 0.00 0.00 96 1011.1
20260906121149 25 11 3.2 6.4 0.00 0.00 0.00 96 1011.0
20260906121049 25 11 3.2 6.4 0.00 0.00 0.00 96 1011.0
20260906120950 25 11 4.8 6.4 0.00 0.00 0.00 96 1011.1
20260906120851 25 11 3.2 6.4 0.00 0.00 0.00 96 1011.1
20260906120750 25 11 3.2 6.4 0.00 0.00 0.00 96 1011.1
20260906120649 25 11 3.2 6.4 0.00 0.00 0.00 96 1011.1
20260906120551 25 11 3.2 6.4 0.00 0.00 0.00 96 1011.1
20260906120449 25 11 1.6 4.8 0.00 0.00 0.00 96 1011.0
20260906120349 25 11 0.0 0.0 0.00 0.00 0.00 96 1011.0
20260906120250 25 11 0.0 0.0 0.00 0.00 0.00 96 1011.0
20260906120150 25 13 0.0 0.0 0.00 0.00 0.00 96 1011.0
20260906120049 25 11 0.0 0.0 0.00 0.00 0.00 96 1011.0
20260906115950 25 11 0.0 0.0 0.00 0.00 0.00 96 1011.0
20260906115850 25 14 0.0 0.0 0.00 0.00 0.00 96 1011.1
20260906115749 25 13 0.0 0.0 0.00 0.00 0.00 96 1011.0
20260906115649 25 13 0.0 0.0 0.00 0.00 0.00 96 1011.0
20260906115549 25 13 0.0 0.0 0.00 0.00 0.00 96 1011.0
20260906115449 25 13 0.0 0.0 0.00 0.00 0.00 96 1011.0
20260906115346 25 13 0.0 0.0 0.00 0.00 0.00 96 1011.1
20260906115247 25 14 0.0 0.0 0.00 0.00 0.00 96 1011.0
20260906115143 25 13 0.0 0.0 0.00 0.00 0.00 96 1011.0
20260906115043 25 13 0.0 0.0 0.00 0.00 0.00 96 1011.0
20260906114932 25 13 0.0 0.0 0.00 0.00 0.00 96 1011.0
20260906114831 25 13 0.0 0.0 0.00 0.00 0.00 96 1011.0
20260906114731 25 13 0.0 0.0 0.00 0.00 0.00 96 1011.0
20260906114632 25 13 0.0 0.0 0.00 0.00 0.00 96 1011.0
20260906114532 25 13 0.0 0.0 0.00 0.00 0.00 96 1011.0
20260906114431 25 13 0.0 0.0 0.00 0.00 0.00 96 1010.9
20260906114332 25 13 0.0 0.0 0.00 0.00 0.00 96 1010.9
20260906114232 25 13 0.0 0.0 0.00 0.00 0.00 96 1010.9
20260906114132 25 13 0.0 0.0 0.00 0.00 0.00 96 1010.8
20260906114033 25 13 0.0 0.0 0.00 0.00 0.00 96 1010.9
20260906113932 25 14 0.0 0.0 0.00 0.00 0.00 96 1010.8
20260906113832 25 13 0.0 0.0 0.00 0.00 0.00 96 1010.8
20260906113731 25 13 0.0 0.0 0.00 0.00 0.00 96 1010.8
20260906113631 25 13 0.0 0.0 0.00 0.00 0.00 96 1010.8
20260906113532 25 13 0.0 0.0 0.00 0.00 0.00 96 1010.8
20260906113431 25 13 0.0 0.0 0.00 0.00 0.00 96 1010.8
20260906113331 25 13 0.0 0.0 0.00 0.00 0.00 96 1010.9
20260906113232 25 13 0.0 0.0 0.00 0.00 0.00 96 1010.9
20260906113131 25 13 0.0 0.0 0.00 0.00 0.00 96 1010.8
20260906113031 25 13 0.0 0.0 0.00 0.00 0.00 96 1010.8
20260906112932 25 13 0.0 0.0 0.00 0.00 0.00 96 1010.8
20260906112830 25 13 0.0 0.0 0.00 0.00 0.00 96 1010.8
20260906112727 25 13 0.0 0.0 0.00 0.00 0.00 96 1010.8
20260906112627 25 13 0.0 0.0 0.00 0.00 0.00 96 1010.8
20260906112526 25 14 0.0 0.0 0.00 0.00 0.00 96 1010.8
20260906112422 25 13 0.0 0.0 0.00 0.00 0.00 96 1010.8
20260906112324 25 13 0.0 0.0 0.00 0.00 0.00 96 1010.8
20260906112222 25 14 0.0 0.0 0.00 0.00 0.00 96 1010.7
20260906112120 25 13 0.0 0.0 0.00 0.00 0.00 96 1010.8
20260906112018 25 13 0.0 0.0 0.00 0.00 0.00 96 1010.8
20260906111917 25 14 0.0 0.0 0.00 0.00 0.00 96 1010.7
20260906111814 25 13 0.0 0.0 0.00 0.00 0.00 96 1010.7
20260906111713 25 14 0.0 0.0 0.00 0.00 0.00 96 1010.6
20260906111612 25 14 0.0 0.0 0.00 0.00 0.00 96 1010.6
20260906111510 25 14 0.0 0.0 0.00 0.00 0.00 96 1010.7
20260906111406 25 13 0.0 0.0 0.00 0.00 0.00 96 1010.8
20260906111303 25 13 0.0 0.0 0.00 0.00 0.00 96 1010.6
20260906111204 25 13 0.0 0.0 0.00 0.00 0.00 96 1010.7
20260906111103 25 13 0.0 0.0 0.00 0.00 0.00 96 1010.7
20260906111003 25 13 0.0 0.0 0.00 0.00 0.00 96 1010.7
20260906110902 25 13 0.0 0.0 0.00 0.00 0.00 96 1010.7
20260906110802 25 13 0.0 0.0 0.00 0.00 0.00 96 1010.7
20260906110702 25 13 0.0 0.0 0.00 0.00 0.00 96 1010.8
20260906110603 25 13 0.0 0.0 0.00 0.00 0.00 96 1010.7
20260906110502 25 13 0.0 0.0 0.00 0.00 0.00 96 1010.7
20260906110402 25 13 0.0 0.0 0.00 0.00 0.00 96 1010.7
20260906110303 25 13 0.0 0.0 0.00 0.00 0.00 96 1010.7
20260906110202 25 13 0.0 0.0 0.00 0.00 0.00 96 1010.8
20260906110003 25 13 0.0 0.0 0.00 0.00 0.00 96 1010.7
20260906105903 25 13 0.0 0.0 0.00 0.00 0.00 96 1010.7
20260906105804 25 13 0.0 0.0 0.00 0.00 0.00 96 1010.6
20260906105703 25 13 0.0 0.0 0.00 0.00 0.00 96 1010.6
20260906105603 25 13 0.0 0.0 0.00 0.00 0.00 96 1010.6
20260906105502 25 13 0.0 0.0 0.00 0.00 0.00 96 1010.6
20260906105402 25 13 0.0 0.0 0.00 0.00 0.00 96 1010.7
20260906105306 25 13 0.0 0.0 0.00 0.00 0.00 96 1010.6
20260906105203 25 13 0.0 0.0 0.00 0.00 0.00 96 1010.6
20260906105103 25 13 0.0 0.0 0.00 0.00 0.00 96 1010.6
20260906105003 25 13 0.0 0.0 0.00 0.00 0.00 96 1010.5
20260906104903 25 13 0.0 0.0 0.00 0.00 0.00 96 1010.5
20260906104802 25 13 0.0 0.0 0.00 0.00 0.00 96 1010.6
20260906104703 25 13 0.0 3.2 0.00 0.00 0.00 96 1010.6
20260906104603 25 13 0.0 3.2 0.00 0.00 0.00 96 1010.5
20260906104502 25 13 0.0 3.2 0.00 0.00 0.00 96 1010.5
20260906104402 25 13 0.0 3.2 0.00 0.00 0.00 96 1010.5
20260906104304 25 13 0.0 3.2 0.00 0.00 0.00 96 1010.5
20260906104202 25 13 0.0 3.2 0.00 0.00 0.00 96 1010.5
20260906104101 25 13 0.0 3.2 0.00 0.00 0.00 96 1010.5
20260906104004 25 13 0.0 3.2 0.00 0.00 0.00 96 1010.5
20260906103902 25 13 0.0 4.8 0.00 0.00 0.00 96 1010.5
20260906103802 25 13 0.0 4.8 0.00 0.00 0.00 96 1010.5
20260906103702 25 13 0.0 4.8 0.00 0.00 0.00 96 1010.5
20260906103603 25 13 0.0 4.8 0.00 0.00 0.00 95 1010.4
20260906103503 25 13 0.0 4.8 0.00 0.00 0.00 96 1010.4
20260906103403 25 13 0.0 4.8 0.00 0.00 0.00 96 1010.4
20260906103304 25 13 1.6 4.8 0.00 0.00 0.00 95 1010.4
20260906103203 25 13 1.6 4.8 0.00 0.00 0.00 95 1010.3
20260906103102 25 13 1.6 4.8 0.00 0.00 0.00 95 1010.3
20260906103002 25 13 3.2 4.8 0.00 0.00 0.00 95 1010.4
20260906102903 25 13 3.2 4.8 0.00 0.00 0.00 95 1010.3
20260906102801 25 13 3.2 4.8 0.00 0.00 0.00 95 1010.3
20260906102702 25 13 3.2 4.8 0.00 0.00 0.00 95 1010.3
20260906102604 25 13 3.2 4.8 0.00 0.00 0.00 95 1010.3
20260906102503 25 13 1.6 4.8 0.00 0.00 0.00 95 1010.3
20260906102402 25 13 0.0 4.8 0.00 0.00 0.00 95 1010.3
20260906102305 25 13 0.0 3.2 0.00 0.00 0.00 95 1010.3
20260906102201 25 13 0.0 3.2 0.00 0.00 0.00 95 1010.4
20260906102102 25 13 0.0 3.2 0.00 0.00 0.00 95 1010.3
20260906102002 25 13 0.0 3.2 0.00 0.00 0.00 95 1010.3
20260906101903 25 13 1.6 3.2 0.00 0.00 0.00 95 1010.3
20260906101803 25 13 1.6 3.2 0.00 0.00 0.00 95 1010.3
20260906101702 25 13 1.6 4.8 0.00 0.00 0.00 95 1010.2
20260906101602 25 13 0.0 4.8 0.00 0.00 0.00 95 1010.3
20260906101504 25 13 1.6 4.8 0.00 0.00 0.00 95 1010.3
20260906101403 25 13 1.6 4.8 0.00 0.00 0.00 95 1010.3
20260906101303 25 13 1.6 4.8 0.00 0.00 0.00 95 1010.3
20260906101203 25 13 1.6 4.8 0.00 0.00 0.00 95 1010.3
20260906101103 25 13 1.6 4.8 0.00 0.00 0.00 95 1010.3
20260906101003 25 13 3.2 4.8 0.00 0.00 0.00 95 1010.2
20260906100903 25 13 3.2 4.8 0.00 0.00 0.00 95 1010.2
20260906100803 25 13 3.2 4.8 0.00 0.00 0.00 95 1010.2
20260906100703 25 13 3.2 3.2 0.00 0.00 0.00 95 1010.3
20260906100603 25 13 3.2 3.2 0.00 0.00 0.00 95 1010.3
20260906100504 25 13 3.2 3.2 0.00 0.00 0.00 95 1010.3
20260906100402 25 13 3.2 3.2 0.00 0.00 0.00 95 1010.3
20260906100302 25 13 1.6 3.2 0.00 0.00 0.00 95 1010.3
20260906100204 25 13 1.6 3.2 0.00 0.00 0.00 95 1010.3
20260906100003 25 13 0.0 3.2 0.00 0.00 0.00 95 1010.3
20260906095902 25 13 1.6 3.2 0.00 0.00 0.00 95 1010.4
20260906095803 25 13 0.0 3.2 0.00 0.00 0.00 95 1010.3
20260906095702 25 14 0.0 4.8 0.00 0.00 0.00 95 1010.3
20260906095602 25 13 0.0 4.8 0.00 0.00 0.00 95 1010.3
20260906095504 25 13 1.6 4.8 0.00 0.00 0.00 95 1010.3
20260906095403 25 13 0.0 4.8 0.00 0.00 0.00 95 1010.3
20260906095306 25 13 0.0 4.8 0.00 0.00 0.00 95 1010.2
20260906095204 25 13 0.0 4.8 0.00 0.00 0.00 95 1010.2
20260906095103 25 13 0.0 4.8 0.00 0.00 0.00 95 1010.2
20260906095003 25 13 1.6 4.8 0.00 0.00 0.00 95 1010.3
20260906094902 25 13 3.2 4.8 0.00 0.00 0.00 95 1010.2
20260906094803 25 13 3.2 4.8 0.00 0.00 0.00 95 1010.2
20260906094703 25 13 3.2 4.8 0.00 0.00 0.00 95 1010.3
20260906094604 25 13 3.2 6.4 0.00 0.00 0.00 95 1010.3
20260906094503 25 13 3.2 6.4 0.00 0.00 0.00 95 1010.3
20260906094403 25 13 1.6 6.4 0.00 0.00 0.00 95 1010.3
20260906094302 25 13 1.6 6.4 0.00 0.00 0.00 95 1010.3
20260906094202 25 13 3.2 6.4 0.00 0.00 0.00 95 1010.3
20260906094104 25 13 3.2 6.4 0.00 0.00 0.00 95 1010.4
20260906094003 25 13 1.6 6.4 0.00 0.00 0.00 95 1010.2
20260906093903 25 13 1.6 6.4 0.00 0.00 0.00 95 1010.2
20260906093804 25 14 3.2 6.4 0.00 0.00 0.00 95 1010.3
20260906093703 25 13 4.8 6.4 0.00 0.00 0.00 95 1010.2
20260906093602 25 13 3.2 6.4 0.00 0.00 0.00 95 1010.2
20260906093502 25 13 4.8 6.4 0.00 0.00 0.00 95 1010.3
20260906093403 25 13 4.8 6.4 0.00 0.00 0.00 95 1010.3
20260906093303 25 13 3.2 4.8 0.00 0.00 0.00 95 1010.3
20260906093202 25 18 3.2 6.4 0.00 0.00 0.00 95 1010.2
20260906093103 25 18 4.8 6.4 0.00 0.00 0.00 95 1010.3
20260906093002 26 18 3.2 6.4 0.00 0.00 0.00 95 1010.3
20260906092902 26 18 3.2 6.4 0.00 0.00 0.00 95 1010.3
20260906092804 26 18 3.2 6.4 0.00 0.00 0.00 95 1010.3
20260906092704 26 18 3.2 6.4 0.00 0.00 0.00 95 1010.3
20260906092602 26 18 3.2 6.4 0.00 0.00 0.00 94 1010.3
20260906092502 26 18 3.2 6.4 0.00 0.00 0.00 94 1010.3
20260906092403 26 18 3.2 6.4 0.00 0.00 0.00 94 1010.1
20260906092305 26 18 3.2 6.4 0.00 0.00 0.00 94 1010.1
20260906092202 26 18 1.6 6.4 0.00 0.00 0.00 94 1010.1
20260906092104 26 18 3.2 6.4 0.00 0.00 0.00 94 1010.1
20260906092002 26 18 3.2 6.4 0.00 0.00 0.00 94 1010.1
20260906091903 26 18 3.2 6.4 0.00 0.00 0.00 94 1010.1
20260906091802 26 18 1.6 6.4 0.00 0.00 0.00 94 1010.1
20260906091703 26 18 3.2 6.4 0.00 0.00 0.00 94 1010.2
20260906091602 26 20 3.2 6.4 0.00 0.00 0.00 94 1010.2
20260906091502 26 20 4.8 6.4 0.00 0.00 0.00 94 1010.1
20260906091403 26 18 4.8 6.4 0.00 0.00 0.00 94 1010.1
20260906091303 26 18 4.8 6.4 0.00 0.00 0.00 94 1010.1
20260906091202 26 14 4.8 6.4 0.00 0.00 0.00 94 1010.1
20260906091102 26 13 4.8 6.4 0.00 0.00 0.00 94 1010.1
20260906091003 26 13 4.8 6.4 0.00 0.00 0.00 94 1010.2
20260906090903 26 13 4.8 6.4 0.00 0.00 0.00 94 1010.1
20260906090802 26 13 4.8 6.4 0.00 0.00 0.00 94 1010.1
20260906090704 26 13 3.2 4.8 0.00 0.00 0.00 94 1010.1
20260906090603 26 13 1.6 4.8 0.00 0.00 0.00 94 1010.1
20260906090503 26 13 0.0 3.2 0.00 0.00 0.00 94 1010.1
20260906090404 26 13 1.6 3.2 0.00 0.00 0.00 94 1010.0
20260906090303 26 13 1.6 3.2 0.00 0.00 0.00 94 1010.1
20260906090202 26 13 1.6 4.8 0.00 0.00 0.00 94 1010.1
20260906090004 26 13 1.6 4.8 0.00 0.00 0.00 94 1010.1
20260906085903 26 13 1.6 4.8 0.00 0.00 0.00 94 1010.1
20260906085802 26 13 1.6 4.8 0.00 0.00 0.00 94 1010.1
20260906085704 26 13 3.2 4.8 0.00 0.00 0.00 94 1010.1
20260906085603 26 13 3.2 4.8 0.00 0.00 0.00 94 1010.1
20260906085503 26 13 1.6 4.8 0.00 0.00 0.00 94 1010.1
20260906085402 26 13 3.2 4.8 0.00 0.00 0.00 94 1010.0
20260906085306 26 13 3.2 4.8 0.00 0.00 0.00 94 1010.0
20260906085203 26 13 3.2 4.8 0.00 0.00 0.00 94 1010.1
20260906085102 26 13 3.2 4.8 0.00 0.00 0.00 94 1010.0
20260906085004 26 13 3.2 4.8 0.00 0.00 0.00 94 1010.1
20260906084902 26 13 3.2 4.8 0.00 0.00 0.00 94 1010.1
20260906084804 26 13 3.2 4.8 0.00 0.00 0.00 94 1010.0
20260906084703 26 13 3.2 4.8 0.00 0.00 0.00 94 1010.0
20260906084602 26 13 3.2 4.8 0.00 0.00 0.00 94 1010.0
20260906084505 26 13 1.6 4.8 0.00 0.00 0.00 94 1010.0
20260906084402 26 13 1.6 4.8 0.00 0.00 0.00 94 1010.0
20260906084303 26 13 0.0 0.0 0.00 0.00 0.00 94 1009.9
20260906084202 26 13 0.0 0.0 0.00 0.00 0.00 94 1009.9
20260906084102 26 13 0.0 0.0 0.00 0.00 0.00 94 1009.9
20260906084005 26 13 0.0 0.0 0.00 0.00 0.00 94 1009.9
20260906083903 26 13 0.0 0.0 0.00 0.00 0.00 94 1009.9
20260906083802 26 13 0.0 0.0 0.00 0.00 0.00 94 1009.9
20260906083703 26 13 0.0 0.0 0.00 0.00 0.00 94 1009.9
20260906083602 26 13 0.0 0.0 0.00 0.00 0.00 94 1009.9
20260906083502 26 13 0.0 1.6 0.00 0.00 0.00 94 1009.9
20260906083402 26 13 0.0 3.2 0.00 0.00 0.00 94 1009.9
20260906083303 26 13 0.0 3.2 0.00 0.00 0.00 94 1009.9
20260906083202 26 13 0.0 3.2 0.00 0.00 0.00 94 1010.0
20260906083102 26 13 0.0 3.2 0.00 0.00 0.00 94 1010.1
20260906083004 26 13 0.0 3.2 0.00 0.00 0.00 94 1010.0
20260906082903 26 13 0.0 3.2 0.00 0.00 0.00 94 1010.0
20260906082803 26 13 0.0 3.2 0.00 0.00 0.00 94 1010.0
20260906082702 26 13 0.0 4.8 0.00 0.00 0.00 94 1010.0
20260906082603 26 13 1.6 4.8 0.00 0.00 0.00 94 1010.0
20260906082502 26 13 1.6 4.8 0.00 0.00 0.00 94 1010.0
20260906082403 26 13 0.0 4.8 0.00 0.00 0.00 94 1010.0
20260906082305 26 13 0.0 6.4 0.00 0.00 0.00 94 1010.1
20260906082203 26 13 0.0 6.4 0.00 0.00 0.00 94 1010.1
20260906082102 26 13 0.0 6.4 0.00 0.00 0.00 94 1010.1
20260906082003 26 13 1.6 6.4 0.00 0.00 0.00 94 1010.1
20260906081904 26 13 3.2 6.4 0.00 0.00 0.00 93 1010.2
20260906081801 26 13 3.2 6.4 0.00 0.00 0.00 93 1010.2
20260906081703 26 13 3.2 6.4 0.00 0.00 0.00 93 1010.1
20260906081603 26 13 3.2 6.4 0.00 0.00 0.00 93 1010.2
20260906081503 26 13 4.8 6.4 0.00 0.00 0.00 93 1010.2
20260906081403 26 13 4.8 6.4 0.00 0.00 0.00 93 1010.2
20260906081301 26 13 4.8 6.4 0.00 0.00 0.00 93 1010.3
20260906081202 26 13 4.8 6.4 0.00 0.00 0.00 93 1010.2
20260906081102 26 13 4.8 6.4 0.00 0.00 0.00 93 1010.2
20260906081005 26 13 4.8 6.4 0.00 0.00 0.00 93 1010.2
20260906080905 26 13 3.2 6.4 0.00 0.00 0.00 93 1010.2
20260906080802 26 13 3.2 6.4 0.00 0.00 0.00 93 1010.2
20260906080703 26 13 3.2 6.4 0.00 0.00 0.00 93 1010.2
20260906080604 26 13 3.2 6.4 0.00 0.00 0.00 93 1010.2
20260906080503 26 13 3.2 4.8 0.00 0.00 0.00 93 1010.2
20260906080403 26 13 3.2 4.8 0.00 0.00 0.00 93 1010.2
20260906080301 26 13 3.2 4.8 0.00 0.00 0.00 93 1010.2
20260906080204 26 13 3.2 4.8 0.00 0.00 0.00 93 1010.2
20260906080003 26 13 3.2 4.8 0.00 0.00 0.00 93 1010.2
20260906075903 26 13 3.2 6.4 0.00 0.00 0.00 93 1010.1
20260906075804 26 13 3.2 6.4 0.00 0.00 0.00 93 1010.1
20260906075702 26 13 3.2 6.4 0.00 0.00 0.00 93 1010.1
20260906075602 26 13 3.2 6.4 0.00 0.00 0.00 93 1010.1
20260906075503 26 13 1.6 6.4 0.00 0.00 0.00 93 1010.2
20260906075402 26 13 3.2 6.4 0.00 0.00 0.00 93 1010.1
20260906075306 26 13 3.2 6.4 0.00 0.00 0.00 93 1010.2
20260906075203 26 13 3.2 8.0 0.00 0.00 0.00 93 1010.2
20260906075102 26 13 3.2 8.0 0.00 0.00 0.00 93 1010.1
20260906075004 26 13 3.2 8.0 0.00 0.00 0.00 93 1010.2
20260906074904 26 13 3.2 8.0 0.00 0.00 0.00 93 1010.2
20260906074803 26 13 4.8 8.0 0.00 0.00 0.00 93 1010.3
20260906074702 26 13 4.8 8.0 0.00 0.00 0.00 93 1010.3
20260906074602 26 13 4.8 8.0 0.00 0.00 0.00 93 1010.3
20260906074503 26 13 4.8 8.0 0.00 0.00 0.00 93 1010.3
20260906074402 26 13 4.8 8.0 0.00 0.00 0.00 93 1010.3
20260906074303 26 14 4.8 8.0 0.00 0.00 0.00 93 1010.2
20260906074204 26 14 4.8 6.4 0.00 0.00 0.00 93 1010.3
20260906074103 26 14 4.8 6.4 0.00 0.00 0.00 93 1010.3
20260906074003 26 17 3.2 4.8 0.00 0.00 0.00 93 1010.4
20260906073902 26 18 3.2 4.8 0.00 0.00 0.00 93 1010.4
20260906073802 26 18 3.2 4.8 0.00 0.00 0.00 93 1010.3
20260906073702 26 18 3.2 4.8 0.00 0.00 0.00 92 1010.4
20260906073602 26 18 3.2 4.8 0.00 0.00 0.00 93 1010.4
20260906073504 26 18 1.6 4.8 0.00 0.00 0.00 93 1010.4
20260906073403 26 21 0.0 3.2 0.00 0.00 0.00 92 1010.4
20260906073302 26 21 0.0 0.0 0.00 0.00 0.00 92 1010.4
20260906073202 26 21 0.0 0.0 0.00 0.00 0.00 92 1010.4
20260906073103 26 21 0.0 0.0 0.00 0.00 0.00 92 1010.4
20260906073004 26 21 0.0 0.0 0.00 0.00 0.00 92 1010.4
20260906072903 26 21 0.0 3.2 0.00 0.00 0.00 92 1010.4
20260906072804 26 21 0.0 3.2 0.00 0.00 0.00 92 1010.4
20260906072702 26 21 0.0 3.2 0.00 0.00 0.00 92 1010.4
20260906072603 26 21 0.0 3.2 0.00 0.00 0.00 92 1010.4
20260906072502 26 21 0.0 3.2 0.00 0.00 0.00 92 1010.4
20260906072403 26 21 0.0 3.2 0.00 0.00 0.00 92 1010.4
20260906072306 26 23 1.6 3.2 0.00 0.00 0.00 92 1010.4
20260906072203 26 23 1.6 3.2 0.00 0.00 0.00 92 1010.3
20260906072103 26 23 1.6 3.2 0.00 0.00 0.00 92 1010.4
20260906071947 26 21 1.6 3.2 0.00 0.00 0.00 92 1010.4
20260906071845 26 21 3.2 3.2 0.00 0.00 0.00 92 1010.4
20260906071744 26 21 1.6 3.2 0.00 0.00 0.00 92 1010.3
20260906071643 26 21 0.0 3.2 0.00 0.00 0.00 92 1010.4
20260906071543 26 48 0.0 0.0 0.00 0.00 0.00 92 1010.4
20260906071444 26 48 0.0 0.0 0.00 0.00 0.00 92 1010.3
20260906071343 26 48 0.0 0.0 0.00 0.00 0.00 92 1010.3
20260906071243 26 48 0.0 0.0 0.00 0.00 0.00 92 1010.4
20260906071142 26 48 0.0 0.0 0.00 0.00 0.00 91 1010.4
20260906071042 26 48 0.0 0.0 0.00 0.00 0.00 91 1010.4
20260906070942 26 48 0.0 0.0 0.00 0.00 0.00 91 1010.3
20260906070843 26 48 0.0 0.0 0.00 0.00 0.00 91 1010.4
20260906070743 26 48 0.0 0.0 0.00 0.00 0.00 91 1010.4
20260906070642 26 48 0.0 0.0 0.00 0.00 0.00 91 1010.3
20260906070542 26 48 0.0 0.0 0.00 0.00 0.00 91 1010.4
20260906070442 26 48 0.0 0.0 0.00 0.00 0.00 91 1010.5
20260906070343 26 48 0.0 0.0 0.00 0.00 0.00 91 1010.5
20260906070244 26 48 0.0 0.0 0.00 0.00 0.00 91 1010.5
20260906070142 26 48 0.0 0.0 0.00 0.00 0.00 91 1010.4
20260906070044 26 48 0.0 0.0 0.00 0.00 0.00 91 1010.5
20260906065943 26 48 0.0 1.6 0.00 0.00 0.00 91 1010.4
20260906065843 26 48 0.0 3.2 0.00 0.00 0.00 91 1010.4
20260906065743 26 48 0.0 3.2 0.00 0.00 0.00 91 1010.4
20260906065642 26 48 0.0 3.2 0.00 0.00 0.00 91 1010.4
20260906065542 26 48 0.0 3.2 0.00 0.00 0.00 91 1010.4
20260906065444 26 48 0.0 3.2 0.00 0.00 0.00 92 1010.4
20260906065344 26 48 0.0 3.2 0.00 0.00 0.00 92 1010.3
20260906065242 26 48 0.0 3.2 0.00 0.00 0.00 91 1010.4
20260906065142 26 48 0.0 3.2 0.00 0.00 0.00 91 1010.4
20260906065043 26 48 1.6 3.2 0.00 0.00 0.00 92 1010.4
20260906064943 26 48 1.6 3.2 0.00 0.00 0.00 91 1010.4
20260906064842 26 47 1.6 3.2 0.00 0.00 0.00 91 1010.4
20260906064741 26 47 1.6 3.2 0.00 0.00 0.00 92 1010.4
20260906064644 26 47 0.0 3.2 0.00 0.00 0.00 92 1010.5
20260906064542 26 45 0.0 0.0 0.00 0.00 0.00 91 1010.5
20260906064442 26 45 0.0 0.0 0.00 0.00 0.00 92 1010.4
20260906064343 26 45 0.0 0.0 0.00 0.00 0.00 92 1010.5
20260906064243 26 45 0.0 0.0 0.00 0.00 0.00 91 1010.4
20260906064143 26 45 0.0 0.0 0.00 0.00 0.00 91 1010.4
20260906064043 26 45 0.0 0.0 0.00 0.00 0.00 91 1010.4
20260906063943 26 45 0.0 0.0 0.00 0.00 0.00 92 1010.4
20260906063841 26 45 0.0 0.0 0.00 0.00 0.00 92 1010.4
20260906063742 26 45 0.0 1.6 0.00 0.00 0.00 92 1010.3
20260906063641 26 45 0.0 3.2 0.00 0.00 0.00 92 1010.3
20260906063542 26 45 0.0 3.2 0.00 0.00 0.00 92 1010.4
20260906063441 26 45 0.0 3.2 0.00 0.00 0.00 92 1010.3
20260906063342 26 45 0.0 3.2 0.00 0.00 0.00 92 1010.4
20260906063243 26 45 0.0 3.2 0.00 0.00 0.00 92 1010.3
20260906063142 26 45 0.0 3.2 0.00 0.00 0.00 92 1010.3
20260906063042 26 45 0.0 3.2 0.00 0.00 0.00 92 1010.2
20260906062942 26 44 0.0 3.2 0.00 0.00 0.00 92 1010.3
20260906062841 26 44 1.6 3.2 0.00 0.00 0.00 92 1010.3
20260906062742 26 44 0.0 3.2 0.00 0.00 0.00 92 1010.2
20260906062641 26 44 0.0 1.6 0.00 0.00 0.00 92 1010.3
20260906062542 26 42 0.0 0.0 0.00 0.00 0.00 92 1010.3
20260906062441 26 44 0.0 0.0 0.00 0.00 0.00 92 1010.3
20260906062342 26 44 0.0 0.0 0.00 0.00 0.00 92 1010.3
20260906062243 26 44 0.0 0.0 0.00 0.00 0.00 92 1010.4
20260906062142 26 44 0.0 0.0 0.00 0.00 0.00 92 1010.4
20260906062042 26 45 0.0 0.0 0.00 0.00 0.00 92 1010.4
20260906061942 26 45 0.0 0.0 0.00 0.00 0.00 92 1010.3
20260906061842 26 45 0.0 0.0 0.00 0.00 0.00 92 1010.4
20260906061741 26 44 0.0 0.0 0.00 0.00 0.00 92 1010.5
20260906061642 26 45 0.0 0.0 0.00 0.00 0.00 91 1010.5
20260906061542 26 45 0.0 0.0 0.00 0.00 0.00 91 1010.4
20260906061441 26 45 0.0 0.0 0.00 0.00 0.00 91 1010.4
20260906061341 26 44 0.0 0.0 0.00 0.00 0.00 91 1010.4
20260906061242 26 45 0.0 0.0 0.00 0.00 0.00 91 1010.4
20260906061141 26 45 0.0 0.0 0.00 0.00 0.00 91 1010.4
20260906061041 26 44 0.0 0.0 0.00 0.00 0.00 91 1010.4
20260906060942 26 45 0.0 0.0 0.00 0.00 0.00 91 1010.4
20260906060842 26 44 0.0 0.0 0.00 0.00 0.00 91 1010.5
20260906060741 26 44 0.0 0.0 0.00 0.00 0.00 91 1010.4
20260906060641 26 44 0.0 0.0 0.00 0.00 0.00 91 1010.5
20260906060542 26 44 0.0 0.0 0.00 0.00 0.00 91 1010.5
20260906060442 26 44 0.0 0.0 0.00 0.00 0.00 91 1010.4
20260906060341 26 45 0.0 0.0 0.00 0.00 0.00 91 1010.5
20260906060240 26 44 0.0 0.0 0.00 0.00 0.00 91 1010.5
20260906060143 26 44 0.0 0.0 0.00 0.00 0.00 91 1010.5
20260906060042 26 44 0.0 0.0 0.00 0.00 0.00 91 1010.5
20260906055941 26 44 0.0 0.0 0.00 0.00 0.00 91 1010.5
20260906055842 26 44 0.0 0.0 0.00 0.00 0.00 91 1010.6
20260906055740 26 44 0.0 0.0 0.00 0.00 0.00 91 1010.5
20260906055643 26 44 0.0 1.6 0.00 0.00 0.00 91 1010.5
20260906055541 26 44 0.0 3.2 0.00 0.00 0.00 91 1010.5
20260906055443 26 44 0.0 3.2 0.00 0.00 0.00 91 1010.6
20260906055341 26 44 0.0 3.2 0.00 0.00 0.00 91 1010.6
20260906055240 26 44 0.0 3.2 0.00 0.00 0.00 91 1010.6
20260906055141 26 44 0.0 3.2 0.00 0.00 0.00 91 1010.6
20260906055041 26 44 0.0 3.2 0.00 0.00 0.00 91 1010.6
20260906054941 26 42 0.0 3.2 0.00 0.00 0.00 91 1010.6
20260906054841 26 42 0.0 3.2 0.00 0.00 0.00 91 1010.5
20260906054741 26 42 0.0 3.2 0.00 0.00 0.00 91 1010.7
20260906054640 26 42 0.0 3.2 0.00 0.00 0.00 91 1010.6
20260906054540 26 42 0.0 3.2 0.00 0.00 0.00 91 1010.5
20260906054440 26 44 0.0 3.2 0.00 0.00 0.00 91 1010.6
20260906054341 26 44 0.0 3.2 0.00 0.00 0.00 91 1010.6
20260906054240 26 44 0.0 3.2 0.00 0.00 0.00 91 1010.5
20260906054140 26 42 0.0 3.2 0.00 0.00 0.00 91 1010.6
20260906054041 26 44 0.0 3.2 0.00 0.00 0.00 91 1010.6
20260906053940 26 44 1.6 3.2 0.00 0.00 0.00 91 1010.6
20260906053840 26 44 1.6 3.2 0.00 0.00 0.00 91 1010.5
20260906053742 26 44 1.6 3.2 0.00 0.00 0.00 91 1010.5
20260906053640 26 44 0.0 3.2 0.00 0.00 0.00 91 1010.6
20260906053540 26 44 0.0 3.2 0.00 0.00 0.00 91 1010.6
20260906053440 26 44 0.0 3.2 0.00 0.00 0.00 91 1010.6
20260906053342 26 44 1.6 3.2 0.00 0.00 0.00 91 1010.5
20260906053241 26 42 0.0 3.2 0.00 0.00 0.00 91 1010.5
20260906053140 26 44 1.6 3.2 0.00 0.00 0.00 91 1010.5
20260906053041 26 44 1.6 3.2 0.00 0.00 0.00 91 1010.5
20260906052940 26 44 0.0 3.2 0.00 0.00 0.00 91 1010.5
20260906052840 26 44 0.0 3.2 0.00 0.00 0.00 91 1010.4
20260906052740 26 44 0.0 3.2 0.00 0.00 0.00 91 1010.5
20260906052641 26 44 0.0 3.2 0.00 0.00 0.00 91 1010.4
20260906052542 26 44 0.0 3.2 0.00 0.00 0.00 91 1010.5
20260906052440 26 44 0.0 3.2 0.00 0.00 0.00 91 1010.5
20260906052341 26 44 0.0 3.2 0.00 0.00 0.00 91 1010.5
20260906052240 26 44 0.0 3.2 0.00 0.00 0.00 91 1010.5
20260906052141 26 44 1.6 3.2 0.00 0.00 0.00 91 1010.5
20260906052041 26 44 1.6 3.2 0.00 0.00 0.00 91 1010.5
20260906051942 26 45 1.6 3.2 0.00 0.00 0.00 91 1010.5
20260906051840 26 44 0.0 3.2 0.00 0.00 0.00 91 1010.4
20260906051740 26 44 1.6 3.2 0.00 0.00 0.00 91 1010.4
20260906051641 26 44 0.0 3.2 0.00 0.00 0.00 91 1010.4
20260906051540 26 45 0.0 3.2 0.00 0.00 0.00 91 1010.4
20260906051440 26 44 1.6 3.2 0.00 0.00 0.00 91 1010.4
20260906051340 26 45 0.0 3.2 0.00 0.00 0.00 91 1010.4
20260906051241 26 44 0.0 3.2 0.00 0.00 0.00 91 1010.4
20260906051140 26 45 0.0 3.2 0.00 0.00 0.00 91 1010.5
20260906051040 26 44 0.0 3.2 0.00 0.00 0.00 91 1010.4
20260906050941 26 44 1.6 3.2 0.00 0.00 0.00 90 1010.5
20260906050840 26 44 1.6 3.2 0.00 0.00 0.00 91 1010.5
20260906050739 26 44 0.0 3.2 0.00 0.00 0.00 90 1010.4
20260906050639 26 45 1.6 3.2 0.00 0.00 0.00 90 1010.4
20260906050542 26 45 1.6 3.2 0.00 0.00 0.00 90 1010.3
20260906050440 26 44 1.6 3.2 0.00 0.00 0.00 90 1010.3
20260906050339 26 44 1.6 3.2 0.00 0.00 0.00 90 1010.4
20260906050241 26 45 0.0 3.2 0.00 0.00 0.00 90 1010.4
20260906050140 26 45 0.0 3.2 0.00 0.00 0.00 90 1010.4
20260906050041 26 45 0.0 3.2 0.00 0.00 0.00 90 1010.4
20260906045939 26 45 0.0 3.2 0.00 0.00 0.00 90 1010.5
20260906045839 26 44 0.0 3.2 0.00 0.00 0.00 90 1010.5
20260906045739 26 45 0.0 3.2 0.00 0.00 0.00 90 1010.5
20260906045639 26 45 0.0 3.2 0.00 0.00 0.00 90 1010.5
20260906045540 26 45 0.0 3.2 0.00 0.00 0.00 90 1010.4
20260906045440 26 45 0.0 3.2 0.00 0.00 0.00 90 1010.5
20260906045341 26 45 0.0 3.2 0.00 0.00 0.00 90 1010.5
20260906045240 26 45 0.0 3.2 0.00 0.00 0.00 90 1010.4
20260906045139 26 47 0.0 3.2 0.00 0.00 0.00 90 1010.4
20260906045039 26 45 0.0 3.2 0.00 0.00 0.00 90 1010.5
20260906044939 26 45 1.6 3.2 0.00 0.00 0.00 90 1010.4
20260906044840 26 45 1.6 3.2 0.00 0.00 0.00 90 1010.4
20260906044739 26 45 1.6 4.8 0.00 0.00 0.00 90 1010.4
20260906044639 26 47 1.6 4.8 0.00 0.00 0.00 90 1010.5
20260906044540 26 45 1.6 4.8 0.00 0.00 0.00 90 1010.5
20260906044440 26 45 1.6 4.8 0.00 0.00 0.00 90 1010.5
20260906044339 26 45 1.6 4.8 0.00 0.00 0.00 90 1010.5
20260906044239 26 45 0.0 4.8 0.00 0.00 0.00 90 1010.5
20260906044139 26 47 0.0 4.8 0.00 0.00 0.00 90 1010.4
20260906044039 26 45 0.0 4.8 0.00 0.00 0.00 90 1010.4
20260906043940 26 45 1.6 4.8 0.00 0.00 0.00 90 1010.4
20260906043840 26 47 1.6 4.8 0.00 0.00 0.00 90 1010.4
20260906043740 26 47 1.6 4.8 0.00 0.00 0.00 90 1010.5
20260906043639 26 41 1.6 4.8 0.00 0.00 0.00 90 1010.5
20260906043540 26 32 1.6 4.8 0.00 0.00 0.00 90 1010.4
20260906043440 26 32 1.6 4.8 0.00 0.00 0.00 90 1010.4
20260906043338 26 32 1.6 4.8 0.00 0.00 0.00 90 1010.5
20260906043239 26 32 3.2 4.8 0.00 0.00 0.00 90 1010.6
20260906043140 26 32 1.6 4.8 0.00 0.00 0.00 90 1010.6
20260906043039 26 32 3.2 4.8 0.00 0.00 0.00 90 1010.6
20260906042939 26 32 3.2 4.8 0.00 0.00 0.00 90 1010.6
20260906042840 26 31 1.6 4.8 0.00 0.00 0.00 90 1010.6
20260906042740 26 31 1.6 4.8 0.00 0.00 0.00 90 1010.7
20260906042638 26 31 3.2 4.8 0.00 0.00 0.00 90 1010.7
20260906042539 26 31 3.2 4.8 0.00 0.00 0.00 90 1010.7
20260906042441 26 31 3.2 4.8 0.00 0.00 0.00 90 1010.7
20260906042339 26 31 1.6 4.8 0.00 0.00 0.00 90 1010.7
20260906042239 26 31 0.0 4.8 0.00 0.00 0.00 90 1010.6
20260906042139 26 31 0.0 6.4 0.00 0.00 0.00 90 1010.6
20260906042039 26 31 0.0 6.4 0.00 0.00 0.00 90 1010.7
20260906041938 26 31 0.0 6.4 0.00 0.00 0.00 90 1010.7
20260906041840 26 31 1.6 8.0 0.00 0.00 0.00 90 1010.6
20260906041739 26 31 3.2 8.0 0.00 0.00 0.00 90 1010.7
20260906041638 26 31 3.2 8.0 0.00 0.00 0.00 90 1010.7
20260906041538 26 31 3.2 8.0 0.00 0.00 0.00 90 1010.6
20260906041438 26 31 3.2 8.0 0.00 0.00 0.00 90 1010.7
20260906041339 26 31 3.2 8.0 0.00 0.00 0.00 90 1010.7
20260906041239 26 31 4.8 8.0 0.00 0.00 0.00 90 1010.7
20260906041138 26 42 4.8 9.7 0.00 0.00 0.00 90 1010.6
20260906041040 26 35 6.4 9.7 0.00 0.00 0.00 90 1010.6
20260906040938 26 35 6.4 9.7 0.00 0.00 0.00 90 1010.6
20260906040840 26 44 4.8 9.7 0.00 0.00 0.00 90 1010.6
20260906040739 26 35 4.8 9.7 0.00 0.00 0.00 90 1010.6
20260906040638 26 38 4.8 9.7 0.00 0.00 0.00 90 1010.5
20260906040539 26 41 4.8 9.7 0.00 0.00 0.00 90 1010.6
20260906040438 26 37 6.4 9.7 0.00 0.00 0.00 90 1010.5
20260906040340 26 38 6.4 9.7 0.00 0.00 0.00 90 1010.6
20260906040238 26 35 6.4 9.7 0.00 0.00 0.00 90 1010.5
20260906040138 26 35 4.8 8.0 0.00 0.00 0.00 90 1010.5
20260906040038 26 41 4.8 8.0 0.00 0.00 0.00 90 1010.5
20260906035939 26 39 3.2 8.0 0.00 0.00 0.00 90 1010.5
20260906035836 26 35 3.2 8.0 0.00 0.00 0.00 90 1010.5
20260906035735 26 35 4.8 8.0 0.00 0.00 0.00 90 1010.5
20260906035634 26 39 6.4 8.0 0.00 0.00 0.00 90 1010.6
20260906035532 26 37 4.8 6.4 0.00 0.00 0.00 90 1010.5
20260906035432 26 39 1.6 6.4 0.00 0.00 0.00 90 1010.6
20260906035331 26 27 0.0 0.0 0.00 0.00 0.00 90 1010.6
20260906035234 26 27 0.0 0.0 0.00 0.00 0.00 90 1010.7
20260906035132 26 27 0.0 0.0 0.00 0.00 0.00 90 1010.7
20260906035031 26 27 0.0 0.0 0.00 0.00 0.00 90 1010.6
20260906034931 26 27 0.0 0.0 0.00 0.00 0.00 90 1010.7
20260906034832 26 27 0.0 0.0 0.00 0.00 0.00 90 1010.6
20260906034731 26 27 0.0 0.0 0.00 0.00 0.00 90 1010.5
20260906034632 26 27 0.0 0.0 0.00 0.00 0.00 90 1010.6
20260906034532 26 27 0.0 0.0 0.00 0.00 0.00 90 1010.6
20260906034432 26 27 0.0 0.0 0.00 0.00 0.00 90 1010.6
20260906034332 26 27 0.0 0.0 0.00 0.00 0.00 90 1010.6
20260906034231 26 27 0.0 0.0 0.00 0.00 0.00 90 1010.6
20260906034132 26 27 0.0 0.0 0.00 0.00 0.00 90 1010.6
20260906034029 26 27 0.0 0.0 0.00 0.00 0.00 90 1010.6
20260906033930 26 27 0.0 0.0 0.00 0.00 0.00 90 1010.6
20260906033825 26 27 0.0 0.0 0.00 0.00 0.00 90 1010.6
20260906033724 26 27 0.0 0.0 0.00 0.00 0.00 90 1010.7
20260906033623 26 28 0.0 0.0 0.00 0.00 0.00 90 1010.7
20260906033523 26 27 0.0 0.0 0.00 0.00 0.00 90 1010.6
20260906033420 26 28 0.0 0.0 0.00 0.00 0.00 90 1010.7
20260906033320 26 28 0.0 0.0 0.00 0.00 0.00 90 1010.7
20260906033219 26 28 0.0 0.0 0.00 0.00 0.00 90 1010.7
20260906033117 26 28 0.0 0.0 0.00 0.00 0.00 90 1010.6
20260906033007 26 28 0.0 0.0 0.00 0.00 0.00 90 1010.6
20260906032905 26 28 0.0 0.0 0.00 0.00 0.00 90 1010.7
20260906032802 26 28 0.0 0.0 0.00 0.00 0.00 89 1010.7
20260906032704 26 28 0.0 0.0 0.00 0.00 0.00 89 1010.7
20260906032603 26 28 0.0 1.6 0.00 0.00 0.00 89 1010.7
20260906032502 26 28 0.0 3.2 0.00 0.00 0.00 89 1010.7
20260906032404 26 27 0.0 6.4 0.00 0.00 0.00 89 1010.7
20260906032305 26 28 0.0 9.7 0.00 0.00 0.00 89 1010.7
20260906032203 26 28 0.0 9.7 0.00 0.00 0.00 90 1010.7
20260906032102 26 27 0.0 9.7 0.00 0.00 0.00 90 1010.7
20260906032003 26 27 0.0 9.7 0.00 0.00 0.00 90 1010.6
20260906031902 26 27 0.0 9.7 0.00 0.00 0.00 90 1010.7
20260906031802 26 30 0.0 9.7 0.00 0.00 0.00 90 1010.6
20260906031702 26 30 1.6 9.7 0.00 0.00 0.00 90 1010.7
20260906031602 26 30 4.8 9.7 0.00 0.00 0.00 90 1010.7
20260906031504 26 30 6.4 9.7 0.00 0.00 0.00 90 1010.6
20260906031403 26 27 6.4 9.7 0.00 0.00 0.00 90 1010.6
20260906031301 26 27 6.4 9.7 0.00 0.00 0.00 90 1010.6
20260906031203 26 31 4.8 6.4 0.00 0.00 0.00 90 1010.6
20260906031102 26 24 3.2 6.4 0.00 0.00 0.00 90 1010.6
20260906031004 26 18 3.2 6.4 0.00 0.00 0.00 90 1010.6
20260906030902 26 18 3.2 6.4 0.00 0.00 0.00 90 1010.5
20260906030803 26 18 3.2 6.4 0.00 0.00 0.00 90 1010.5
20260906030701 26 14 3.2 6.4 0.00 0.00 0.00 90 1010.5
20260906030600 26 14 3.2 6.4 0.00 0.00 0.00 90 1010.5
20260906030459 26 14 3.2 6.4 0.00 0.00 0.00 90 1010.5
20260906030356 26 14 4.8 6.4 0.00 0.00 0.00 91 1010.5
20260906030254 26 14 3.2 6.4 0.00 0.00 0.00 91 1010.6
20260906030154 26 11 3.2 6.4 0.00 0.00 0.00 91 1010.6
20260906030052 26 11 3.2 6.4 0.00 0.00 0.00 90 1010.6
20260906025951 26 11 3.2 6.4 0.00 0.00 0.00 90 1010.6
20260906025849 26 11 3.2 6.4 0.00 0.00 0.00 90 1010.6
20260906025746 26 11 4.8 6.4 0.00 0.00 0.00 90 1010.6
20260906025647 26 11 4.8 6.4 0.00 0.00 0.00 90 1010.6
20260906025543 26 11 4.8 6.4 0.00 0.00 0.00 90 1010.6
20260906025444 26 10 4.8 6.4 0.00 0.00 0.00 90 1010.6
20260906025341 26 10 4.8 6.4 0.00 0.00 0.00 90 1010.5
20260906025238 26 10 4.8 6.4 0.00 0.00 0.00 90 1010.6
20260906025137 26 10 3.2 6.4 0.00 0.00 0.00 90 1010.5
20260906025037 26 10 3.2 6.4 0.00 0.00 0.00 90 1010.5
20260906024937 26 10 4.8 6.4 0.00 0.00 0.00 90 1010.5
20260906024839 26 10 4.8 6.4 0.00 0.00 0.00 90 1010.4
20260906024737 26 10 4.8 6.4 0.00 0.00 0.00 90 1010.4
20260906024637 26 10 4.8 6.4 0.00 0.00 0.00 90 1010.3
20260906024537 26 10 3.2 6.4 0.00 0.00 0.00 90 1010.3
20260906024436 26 10 3.2 6.4 0.00 0.00 0.00 90 1010.3
20260906024338 26 10 3.2 6.4 0.00 0.00 0.00 90 1010.2
20260906024239 26 10 4.8 6.4 0.00 0.00 0.00 90 1010.3
20260906024137 26 10 4.8 6.4 0.00 0.00 0.00 90 1010.3
20260906024038 26 10 4.8 4.8 0.00 0.00 0.00 89 1010.2
20260906023937 26 10 3.2 4.8 0.00 0.00 0.00 89 1010.3
20260906023837 26 16 3.2 4.8 0.00 0.00 0.00 89 1010.2
20260906023738 26 16 3.2 6.4 0.00 0.00 0.00 89 1010.2
20260906023638 26 16 3.2 6.4 0.00 0.00 0.00 89 1010.3
20260906023536 26 16 3.2 6.4 0.00 0.00 0.00 89 1010.2
20260906023436 26 16 3.2 6.4 0.00 0.00 0.00 89 1010.2
20260906023337 26 16 3.2 6.4 0.00 0.00 0.00 89 1010.2
20260906023236 26 17 3.2 6.4 0.00 0.00 0.00 89 1010.1
20260906023137 26 16 3.2 6.4 0.00 0.00 0.00 89 1010.1
20260906023037 26 16 3.2 6.4 0.00 0.00 0.00 89 1010.1
20260906022937 26 16 3.2 6.4 0.00 0.00 0.00 89 1010.1
20260906022836 26 16 3.2 6.4 0.00 0.00 0.00 89 1010.0
20260906022736 26 17 3.2 6.4 0.00 0.00 0.00 89 1010.1
20260906022638 26 16 3.2 6.4 0.00 0.00 0.00 89 1010.1
20260906022536 26 17 3.2 6.4 0.00 0.00 0.00 89 1010.0
20260906022436 26 17 3.2 6.4 0.00 0.00 0.00 88 1010.0
20260906022338 26 17 1.6 6.4 0.00 0.00 0.00 88 1010.0
20260906022236 26 17 3.2 6.4 0.00 0.00 0.00 88 1009.9
20260906022136 26 17 3.2 6.4 0.00 0.00 0.00 88 1009.9
20260906022037 26 17 3.2 6.4 0.00 0.00 0.00 88 1009.9
20260906021938 26 17 4.8 6.4 0.00 0.00 0.00 88 1009.9
20260906021837 26 17 3.2 6.4 0.00 0.00 0.00 88 1009.8
20260906021736 26 17 3.2 6.4 0.00 0.00 0.00 88 1009.9
20260906021637 27 28 3.2 6.4 0.00 0.00 0.00 88 1009.8
20260906021536 27 28 3.2 6.4 0.00 0.00 0.00 88 1009.8
20260906021436 27 28 3.2 6.4 0.00 0.00 0.00 88 1009.8
20260906021338 27 30 3.2 6.4 0.00 0.00 0.00 88 1009.8
20260906021238 27 28 4.8 6.4 0.00 0.00 0.00 88 1009.8
20260906021135 26 28 3.2 9.7 0.00 0.00 0.00 88 1009.9
20260906021035 26 25 3.2 9.7 0.00 0.00 0.00 88 1009.9
20260906020936 26 25 3.2 9.7 0.00 0.00 0.00 88 1009.9
20260906020836 26 25 3.2 9.7 0.00 0.00 0.00 88 1009.8
20260906020734 26 27 3.2 9.7 0.00 0.00 0.00 88 1009.8
20260906020632 26 25 3.2 9.7 0.00 0.00 0.00 88 1009.8
20260906020532 26 24 4.8 9.7 0.00 0.00 0.00 89 1009.9
20260906020431 26 25 4.8 9.7 0.00 0.00 0.00 89 1009.9
20260906020332 26 25 4.8 9.7 0.00 0.00 0.00 88 1009.9
20260906020233 26 25 6.4 9.7 0.00 0.00 0.00 89 1010.0
20260906020131 26 25 6.4 9.7 0.00 0.00 0.00 89 1010.0
20260906020031 26 28 8.0 9.7 0.00 0.00 0.00 88 1010.0
20260906015933 26 25 8.0 9.7 0.00 0.00 0.00 88 1010.0
20260906015832 26 24 6.4 9.7 0.00 0.00 0.00 88 1010.0
20260906015731 26 30 4.8 9.7 0.00 0.00 0.00 88 1010.0
20260906015631 26 31 3.2 8.0 0.00 0.03 0.00 88 1009.9
20260906015532 26 18 4.8 8.0 0.00 0.03 0.00 88 1009.9
20260906015434 26 17 4.8 8.0 0.00 0.03 0.00 88 1009.9
20260906015332 27 17 4.8 8.0 0.00 0.03 0.00 88 1009.9
20260906015232 27 17 4.8 8.0 0.00 0.03 0.00 88 1009.9
20260906015131 27 27 3.2 8.0 0.00 0.03 0.00 88 1009.9
20260906015033 27 30 4.8 9.7 0.00 0.03 0.00 88 1009.9
20260906014934 27 30 6.4 9.7 0.00 0.03 0.00 88 1010.0
20260906014831 27 25 4.8 11.3 0.00 0.03 0.00 88 1009.9
20260906014730 27 24 6.4 11.3 0.00 0.03 0.00 88 1009.9
20260906014630 27 23 6.4 11.3 0.00 0.03 0.00 88 1010.0
20260906014533 27 28 6.4 11.3 0.00 0.03 0.00 88 1009.9
20260906014431 27 27 8.0 11.3 0.00 0.03 0.00 88 1010.0
20260906014330 27 20 6.4 11.3 0.00 0.03 0.00 88 1010.0
20260906014231 27 28 6.4 11.3 0.00 0.03 0.00 88 1010.0
20260906014112 27 25 8.0 11.3 0.00 0.03 0.00 88 1009.9
20260906014011 27 27 8.0 14.5 0.00 0.03 0.00 88 1009.9
20260906013910 26 21 6.4 14.5 0.00 0.03 0.00 88 1009.9
20260906013808 27 25 8.0 14.5 0.00 0.03 0.00 88 1009.9
20260906013707 27 31 8.0 14.5 0.00 0.03 0.00 88 1009.8
20260906013605 26 31 6.4 14.5 0.00 0.03 0.00 89 1009.8
20260906013505 26 24 4.8 14.5 0.00 0.03 0.00 89 1009.8
20260906013403 26 25 6.4 14.5 0.00 0.03 0.00 89 1009.7
20260906013304 26 34 8.0 14.5 0.00 0.03 0.00 89 1009.7
20260906013202 26 24 8.0 14.5 0.00 0.03 0.00 89 1009.7
20260906013102 26 23 8.0 14.5 0.00 0.03 0.00 89 1009.7
20260906013003 26 25 6.4 11.3 0.00 0.03 0.00 89 1009.6
20260906012904 26 24 8.0 11.3 0.00 0.03 0.00 89 1009.7
20260906012804 26 32 8.0 14.5 0.00 0.03 0.00 89 1009.7
20260906012703 26 28 8.0 14.5 0.00 0.03 0.00 89 1009.6
20260906012603 26 23 8.0 14.5 0.00 0.03 0.00 89 1009.7
20260906012503 26 28 8.0 14.5 0.00 0.03 0.00 89 1009.6
20260906012402 26 30 9.7 16.1 0.00 0.03 0.00 89 1009.6
20260906012306 26 25 9.7 16.1 0.00 0.03 0.00 89 1009.6
20260906012203 26 23 9.7 16.1 0.00 0.03 0.00 89 1009.7
20260906012102 26 28 9.7 16.1 0.00 0.03 0.00 89 1009.7
20260906012002 26 27 11.3 16.1 0.00 0.03 0.00 89 1009.7
20260906011904 26 27 9.7 16.1 0.00 0.03 0.00 89 1009.6
20260906011803 26 25 6.4 16.1 0.00 0.03 0.00 89 1009.6
20260906011703 26 18 4.8 16.1 0.00 0.03 0.00 89 1009.6
20260906011603 26 28 8.0 16.1 0.00 0.03 0.00 89 1009.6
20260906011504 26 25 11.3 16.1 0.00 0.03 0.00 89 1009.6
20260906011403 26 30 8.0 16.1 0.00 0.03 0.00 89 1009.5
20260906011302 26 30 6.4 16.1 0.00 0.03 0.00 89 1009.5
20260906011204 26 18 6.4 16.1 0.00 0.03 0.00 89 1009.5
20260906011102 26 27 8.0 16.1 0.00 0.03 0.00 89 1009.5
20260906011003 26 30 6.4 16.1 0.00 0.03 0.00 89 1009.5
20260906010903 26 24 6.4 16.1 0.00 0.03 0.00 89 1009.5
20260906010803 26 30 9.7 16.1 0.00 0.03 0.00 89 1009.5
20260906010701 26 25 8.0 16.1 0.00 0.03 0.00 89 1009.5
20260906010602 26 24 8.0 16.1 0.00 0.03 0.00 89 1009.5
20260906010505 26 32 9.7 16.1 0.00 0.03 0.00 89 1009.6
20260906010404 26 17 8.0 16.1 0.00 0.03 0.00 89 1009.6
20260906010302 26 32 8.0 16.1 0.00 0.03 0.00 89 1009.5
20260906010204 26 24 8.0 16.1 0.00 0.03 0.00 89 1009.5
20260906010103 26 30 8.0 16.1 0.00 0.03 0.00 90 1009.6
20260906010004 26 28 9.7 16.1 0.00 0.03 0.00 89 1009.6
20260906005902 26 31 9.7 16.1 0.00 0.03 0.00 89 1009.6
20260906005804 26 23 8.0 11.3 0.00 0.03 0.00 90 1009.6
20260906005702 26 28 8.0 11.3 0.00 0.03 0.00 90 1009.6
20260906005602 26 30 8.0 11.3 0.00 0.03 0.00 90 1009.5
20260906005505 26 28 8.0 14.5 0.00 0.03 0.00 89 1009.5
20260906005402 26 16 6.4 14.5 0.00 0.03 0.00 89 1009.6
20260906005306 26 18 9.7 14.5 0.00 0.03 0.00 89 1009.6
20260906005203 26 20 8.0 14.5 0.00 0.03 0.00 89 1009.6
20260906005103 27 21 4.8 14.5 0.00 0.03 0.00 89 1009.6
20260906005003 27 23 4.8 14.5 0.00 0.03 0.00 89 1009.6
20260906004903 27 21 8.0 14.5 0.00 0.03 0.00 89 1009.6
20260906004804 27 14 8.0 14.5 0.00 0.03 0.00 89 1009.5
20260906004702 27 23 9.7 14.5 0.00 0.03 0.00 89 1009.6
20260906004602 27 24 8.0 14.5 0.00 0.03 0.00 89 1009.6
20260906004504 27 18 6.4 9.7 0.00 0.03 0.00 89 1009.7
20260906004403 27 17 8.0 9.7 0.00 0.03 0.00 89 1009.6
20260906004302 27 16 8.0 9.7 0.00 0.03 0.00 89 1009.6
20260906004204 27 24 8.0 9.7 0.00 0.03 0.00 89 1009.7
20260906004103 27 14 6.4 9.7 0.00 0.03 0.00 89 1009.7
20260906004002 27 21 6.4 9.7 0.00 0.03 0.00 89 1009.7
20260906003901 27 16 6.4 14.5 0.00 0.03 0.00 88 1009.7
20260906003804 27 17 4.8 14.5 0.00 0.03 0.00 88 1009.7
20260906003702 27 20 6.4 16.1 0.00 0.03 0.00 88 1009.7
20260906003603 27 17 6.4 16.1 0.00 0.03 0.00 88 1009.6
20260906003503 27 17 6.4 17.7 0.00 0.03 0.00 88 1009.6
20260906003403 27 17 6.4 17.7 0.00 0.03 0.00 88 1009.7
20260906003304 27 17 6.4 17.7 0.00 0.03 0.00 88 1009.7
20260906003202 27 7 6.4 17.7 0.00 0.03 0.00 88 1009.7
20260906003102 27 17 9.7 17.7 0.00 0.03 0.00 88 1009.6
20260906003002 27 13 11.3 17.7 0.00 0.03 0.00 88 1009.7
20260906002902 27 28 11.3 17.7 0.00 0.03 0.00 88 1009.7
20260906002804 27 25 9.7 17.7 0.00 0.03 0.00 88 1009.6
20260906002704 27 20 11.3 17.7 0.00 0.03 0.00 88 1009.6
20260906002602 27 18 9.7 17.7 0.00 0.03 0.00 88 1009.7
20260906002502 27 27 8.0 14.5 0.00 0.03 0.00 88 1009.6
20260906002402 27 31 8.0 17.7 0.00 0.03 0.00 88 1009.6
20260906002306 27 28 8.0 19.3 0.00 0.03 0.00 88 1009.6
20260906002203 27 21 9.7 19.3 0.00 0.03 0.00 88 1009.6
20260906002103 27 23 9.7 19.3 0.00 0.03 0.00 87 1009.6
20260906002003 27 21 9.7 19.3 0.00 0.03 0.00 87 1009.7
20260906001903 27 30 9.7 19.3 0.00 0.03 0.00 87 1009.7
20260906001803 27 18 8.0 19.3 0.00 0.03 0.00 87 1009.6
20260906001702 27 18 8.0 20.9 0.00 0.03 0.00 87 1009.6
20260906001603 27 27 9.7 20.9 0.00 0.03 0.00 87 1009.7
20260906001503 27 34 12.9 20.9 0.00 0.03 0.00 87 1009.7
20260906001403 27 27 11.3 20.9 0.00 0.03 0.00 87 1009.7
20260906001302 27 32 9.7 20.9 0.00 0.03 0.00 86 1009.7
20260906001201 27 27 8.0 20.9 0.00 0.03 0.00 86 1009.8
20260906001104 27 21 9.7 20.9 0.00 0.03 0.00 86 1009.8
20260906001002 27 30 12.9 20.9 0.00 0.03 0.00 86 1009.8
20260906000903 27 32 11.3 22.5 0.00 0.03 0.00 86 1009.8
20260906000803 27 27 12.9 25.7 0.00 0.03 0.00 86 1009.8
20260906000704 27 24 12.9 25.7 0.00 0.03 0.00 85 1009.9
20260906000603 27 28 14.5 25.7 0.00 0.03 0.00 85 1009.9
20260906000503 28 21 14.5 25.7 0.00 0.03 0.00 85 1010.0
20260906000403 28 30 14.5 25.7 0.00 0.03 0.00 85 1009.9
20260906000303 28 86 12.9 25.7 0.00 0.03 0.00 85 1010.0
20260906000204 28 100 12.9 25.7 0.00 0.03 0.00 85 1009.9
20260906000104 28 82 16.1 25.7 0.00 0.03 0.00 85 1009.8
20260906000004 28 80 16.1 25.7 0.00 0.03 0.00 85 1009.9
20260905235902 28 76 14.5 25.7 0.00 0.03 0.00 85 1009.8
20260905235802 28 62 11.3 22.5 0.00 0.03 0.00 85 1009.8
20260905235703 28 62 11.3 22.5 0.00 0.03 0.00 84 1009.8
20260905235603 28 59 12.9 22.5 0.00 0.03 0.00 84 1009.9
20260905235503 28 76 14.5 22.5 0.00 0.03 0.00 84 1009.9
20260905235402 28 59 14.5 22.5 0.00 0.03 0.00 84 1009.9
20260905235306 28 94 16.1 22.5 0.00 0.03 0.00 84 1009.9
20260905235202 28 76 14.5 20.9 0.00 0.03 0.00 84 1010.0
20260905235102 28 85 14.5 20.9 0.00 0.03 0.00 84 1009.9
20260905235003 28 96 16.1 20.9 0.00 0.03 0.00 84 1009.9
20260905234903 28 92 14.5 20.9 0.00 0.03 0.00 84 1009.9
20260905234803 28 78 11.3 20.9 0.00 0.03 0.00 84 1009.8
20260905234703 28 86 9.7 22.5 0.00 0.03 0.00 84 1009.9
20260905234602 28 107 11.3 22.5 0.00 0.03 0.00 84 1009.9
20260905234502 28 116 11.3 22.5 0.00 0.03 0.00 83 1009.9
20260905234402 28 76 11.3 22.5 0.00 0.03 0.00 83 1009.8
20260905234303 28 71 14.5 22.5 0.00 0.03 0.00 83 1009.9
20260905234204 28 92 14.5 22.5 0.00 0.03 0.00 83 1010.0
20260905234103 28 90 11.3 22.5 0.00 0.03 0.00 83 1010.0
20260905234004 28 85 12.9 24.1 0.00 0.03 0.00 83 1010.0
20260905233903 29 89 14.5 24.1 0.00 0.03 0.00 82 1010.0
20260905233803 29 92 12.9 24.1 0.00 0.03 0.00 82 1010.2
20260905233704 29 102 12.9 24.1 0.00 0.03 0.00 82 1010.2
20260905233603 29 65 14.5 24.1 0.00 0.03 0.00 82 1010.2
20260905233503 29 62 14.5 24.1 0.00 0.03 0.00 82 1010.2
20260905233403 29 102 12.9 24.1 0.00 0.03 0.00 81 1010.3
20260905233304 29 56 14.5 24.1 0.00 0.03 0.00 81 1010.3
20260905233203 29 44 16.1 24.1 0.00 0.03 0.00 80 1010.4
20260905233102 30 66 17.7 24.1 0.00 0.03 0.00 80 1010.4
20260905233004 30 83 17.7 24.1 0.00 0.03 0.00 80 1010.3
20260905232903 30 54 16.1 24.1 0.00 0.03 0.00 80 1010.3
20260905232802 30 125 17.7 24.1 0.00 0.03 0.00 79 1010.3
20260905232702 30 39 17.7 24.1 0.00 0.03 0.00 78 1010.3
20260905232603 30 13 16.1 24.1 0.00 0.03 0.00 78 1010.3
20260905232503 30 16 17.7 24.1 0.00 0.03 0.00 77 1010.2
20260905232403 30 28 16.1 24.1 0.00 0.03 0.00 77 1010.2
20260905232306 30 21 14.5 24.1 0.00 0.03 0.00 77 1010.2
20260905232202 30 18 14.5 24.1 0.00 0.03 0.00 76 1010.2
20260905232101 30 6 12.9 22.5 0.00 0.03 0.00 75 1010.1
20260905232002 30 16 12.9 22.5 0.00 0.03 0.00 75 1010.2
20260905231903 30 6 14.5 22.5 0.00 0.03 0.00 75 1010.1
20260905231802 30 0 12.9 17.7 0.00 0.03 0.00 75 1010.1
20260905231702 30 20 11.3 17.7 0.00 0.03 0.00 75 1010.1
20260905231603 30 16 9.7 17.7 0.00 0.03 0.00 74 1010.1
20260905231502 31 16 9.7 17.7 0.00 0.03 0.00 74 1010.0
20260905231401 31 0 8.0 17.7 0.00 0.03 0.00 73 1010.0
20260905231303 31 37 6.4 17.7 0.00 0.03 0.00 73 1010.0
20260905231202 31 17 8.0 17.7 0.00 0.03 0.00 73 1009.9
20260905231103 31 44 9.7 17.7 0.00 0.03 0.00 72 1009.9
20260905231001 31 27 9.7 17.7 0.00 0.03 0.00 72 1009.8
20260905230903 31 51 9.7 17.7 0.00 0.03 0.00 71 1009.8
20260905230803 31 30 8.0 14.5 0.00 0.03 0.00 71 1009.8
20260905230702 31 87 6.4 14.5 0.00 0.03 0.00 71 1009.8
20260905230603 31 82 6.4 14.5 0.00 0.03 0.00 71 1009.8
20260905230503 31 58 6.4 14.5 0.00 0.03 0.00 71 1009.7
20260905230403 31 62 8.0 16.1 0.00 0.03 0.00 70 1009.7
20260905230302 31 45 8.0 16.1 0.00 0.03 0.00 70 1009.7
20260905230204 31 92 9.7 16.1 0.00 0.03 0.00 70 1009.8
20260905230002 31 61 8.0 16.1 0.00 0.03 0.00 70 1009.7
20260905225903 31 78 8.0 16.1 0.00 0.03 0.00 69 1009.7
20260905225803 31 90 8.0 16.1 0.00 0.03 0.00 69 1009.7
20260905225702 31 56 9.7 16.1 0.00 0.03 0.00 69 1009.6
20260905225602 31 71 9.7 16.1 0.00 0.03 0.00 69 1009.7
20260905225504 31 79 11.3 17.7 0.00 0.03 0.00 69 1009.7
20260905225401 31 82 9.7 17.7 0.00 0.03 0.00 69 1009.6
20260905225305 31 99 8.0 17.7 0.00 0.03 0.00 69 1009.6
20260905225203 31 124 8.0 17.7 0.00 0.03 0.00 69 1009.6
20260905225102 31 93 8.0 17.7 0.00 0.03 0.00 69 1009.6
20260905225002 31 87 8.0 17.7 0.00 0.03 0.00 69 1009.6
20260905224903 31 82 9.7 17.7 0.00 0.03 0.00 70 1009.6
20260905224803 31 92 9.7 17.7 0.00 0.03 0.00 70 1009.5
20260905224702 31 89 11.3 17.7 0.00 0.03 0.00 70 1009.5
20260905224602 31 97 9.7 17.7 0.00 0.03 0.00 71 1009.5
20260905224503 31 76 8.0 11.3 0.00 0.03 0.00 71 1009.4
20260905224401 31 78 8.0 11.3 0.00 0.03 0.00 71 1009.4
20260905224259 31 104 9.7 14.5 0.00 0.03 0.00 71 1009.4
20260905224158 31 87 9.7 14.5 0.00 0.03 0.00 70 1009.4
20260905224057 31 80 9.7 14.5 0.00 0.03 0.00 70 1009.4
20260905223953 31 79 8.0 14.5 0.00 0.03 0.00 70 1009.3
20260905223854 31 82 8.0 14.5 0.00 0.03 0.00 70 1009.4
20260905223751 32 114 8.0 14.5 0.00 0.03 0.00 70 1009.5
20260905223650 32 90 9.7 17.7 0.00 0.03 0.00 70 1009.4
20260905223549 32 123 8.0 17.7 0.00 0.03 0.00 70 1009.4
20260905223448 32 78 9.7 17.7 0.00 0.03 0.00 70 1009.4
20260905223346 32 94 11.3 17.7 0.00 0.03 0.00 70 1009.6
20260905223246 32 80 9.7 17.7 0.00 0.03 0.00 70 1009.5
20260905223144 32 104 8.0 17.7 0.00 0.03 0.00 70 1009.6
20260905223041 32 87 8.0 17.7 0.00 0.03 0.00 70 1009.5
20260905222937 32 69 9.7 17.7 0.00 0.03 0.00 70 1009.5
20260905222835 32 83 11.3 17.7 0.00 0.03 0.00 70 1009.6
20260905222735 32 66 9.7 17.7 0.00 0.03 0.00 70 1009.6
20260905222632 32 80 9.7 17.7 0.00 0.03 0.00 70 1009.6
20260905222532 32 85 9.7 17.7 0.00 0.03 0.00 70 1009.7
20260905222431 32 92 11.3 17.7 0.00 0.03 0.00 70 1009.6
20260905222331 32 100 12.9 17.7 0.00 0.03 0.00 70 1009.6
20260905222231 32 99 11.3 17.7 0.00 0.03 0.00 70 1009.6
20260905222131 32 90 8.0 14.5 0.00 0.03 0.00 70 1009.6
20260905222031 32 69 6.4 11.3 0.00 0.03 0.00 71 1009.5
20260905221931 32 56 6.4 11.3 0.00 0.03 0.00 70 1009.5
20260905221831 32 52 6.4 11.3 0.00 0.03 0.00 70 1009.5
20260905221733 32 71 6.4 11.3 0.00 0.03 0.00 70 1009.5
20260905221633 32 109 6.4 11.3 0.00 0.03 0.00 70 1009.5
20260905221532 32 133 4.8 11.3 0.00 0.03 0.00 71 1009.5
20260905221432 31 96 6.4 11.3 0.00 0.03 0.00 71 1009.4
20260905221331 32 94 8.0 11.3 0.00 0.03 0.00 71 1009.4
20260905221231 31 94 8.0 11.3 0.00 0.03 0.00 72 1009.3
20260905221131 31 92 8.0 11.3 0.00 0.03 0.00 71 1009.3
20260905221032 31 66 6.4 11.3 0.00 0.03 0.00 72 1009.4
20260905220931 31 49 6.4 11.3 0.00 0.03 0.00 72 1009.4
20260905220831 31 90 8.0 11.3 0.00 0.03 0.00 73 1009.3
20260905220732 31 51 3.2 8.0 0.00 0.03 0.00 73 1009.3
20260905220632 31 49 0.0 6.4 0.00 0.03 0.00 74 1009.4
20260905220531 31 0 0.0 0.0 0.00 0.03 0.00 74 1009.3
20260905220431 31 347 0.0 0.0 0.00 0.03 0.00 75 1009.3
20260905220331 31 347 0.0 0.0 0.00 0.03 0.00 75 1009.4
20260905220232 30 347 0.0 0.0 0.00 0.03 0.00 75 1009.5
20260905220131 30 347 0.0 0.0 0.00 0.03 0.00 75 1009.4
20260905220032 30 347 0.0 0.0 0.00 0.03 0.00 76 1009.4
20260905215932 30 347 0.0 0.0 0.00 0.03 0.00 76 1009.5
20260905215831 30 347 0.0 0.0 0.00 0.03 0.00 76 1009.5
20260905215731 30 347 0.0 0.0 0.00 0.03 0.00 76 1009.4
20260905215631 30 347 0.0 3.2 0.00 0.03 0.00 76 1009.5
20260905215532 30 347 0.0 4.8 0.00 0.03 0.00 76 1009.5
20260905215432 30 345 0.0 4.8 0.00 0.03 0.00 76 1009.5
20260905215333 30 327 0.0 4.8 0.00 0.03 0.00 76 1009.5
20260905215232 30 327 0.0 4.8 0.00 0.03 0.00 77 1009.5
20260905215130 30 327 0.0 4.8 0.00 0.03 0.00 77 1009.5
20260905215032 30 327 0.0 6.4 0.00 0.03 0.00 77 1009.5
20260905214931 30 327 0.0 6.4 0.00 0.03 0.00 76 1009.4
20260905214832 30 327 1.6 6.4 0.00 0.03 0.00 76 1009.4
20260905214731 30 327 1.6 6.4 0.00 0.03 0.00 76 1009.3
20260905214632 30 327 3.2 6.4 0.00 0.03 0.00 77 1009.3
20260905214532 30 327 1.6 6.4 0.00 0.03 0.00 77 1009.3
20260905214431 30 327 3.2 8.0 0.00 0.03 0.00 77 1009.3
20260905214333 30 326 3.2 8.0 0.00 0.03 0.00 77 1009.3
20260905214231 30 326 3.2 8.0 0.00 0.03 0.00 77 1009.3
20260905214131 30 326 3.2 8.0 0.00 0.03 0.00 77 1009.3
20260905214031 30 326 3.2 8.0 0.00 0.03 0.00 77 1009.3
20260905213931 30 326 3.2 8.0 0.00 0.05 0.00 77 1009.3
20260905213830 30 326 3.2 8.0 0.00 0.05 0.00 77 1009.4
20260905213730 30 326 3.2 8.0 0.00 0.10 0.00 77 1009.4
20260905213632 30 326 4.8 8.0 0.00 0.13 0.00 77 1009.4
20260905213531 30 326 4.8 8.0 0.00 0.15 0.00 77 1009.5
20260905213432 30 303 4.8 8.0 0.00 0.15 0.00 76 1009.5
20260905213332 30 303 4.8 8.0 0.00 0.15 0.00 76 1009.5
20260905213232 30 303 3.2 8.0 0.00 0.15 0.00 75 1009.6
20260905213132 30 309 0.0 0.0 0.00 0.15 0.00 75 1009.6
20260905213031 30 316 0.0 0.0 0.00 0.15 0.00 74 1009.6
20260905212932 30 316 0.0 0.0 0.00 0.15 0.00 74 1009.6
20260905212831 30 309 0.0 0.0 0.00 0.15 0.00 74 1009.6
20260905212732 30 309 0.0 1.6 0.00 0.15 0.00 73 1009.6
20260905212632 30 314 0.0 1.6 0.00 0.15 0.00 73 1009.6
20260905212532 30 314 0.0 1.6 0.00 0.15 0.00 73 1009.7
20260905212432 30 314 0.0 1.6 0.00 0.15 0.00 73 1009.6
20260905212332 30 319 0.0 1.6 0.00 0.15 0.00 73 1009.7
20260905212232 30 319 0.0 1.6 0.00 0.15 0.00 73 1009.6
20260905212131 30 319 0.0 1.6 0.00 0.15 0.00 73 1009.7
20260905212031 30 320 0.0 1.6 0.00 0.15 0.00 73 1009.7
20260905211932 30 334 0.0 1.6 0.00 0.15 0.00 73 1009.6
20260905211831 30 334 0.0 1.6 0.00 0.15 0.00 73 1009.7
20260905211732 30 334 0.0 0.0 0.00 0.15 0.00 72 1009.7
20260905211631 30 334 0.0 0.0 0.00 0.15 0.00 72 1009.7
20260905211532 31 334 0.0 0.0 0.00 0.15 0.00 71 1009.7
20260905211431 31 334 0.0 0.0 0.00 0.15 0.00 72 1009.7
20260905211331 31 334 0.0 0.0 0.00 0.15 0.00 71 1009.7
20260905211232 31 334 0.0 0.0 0.00 0.15 0.00 71 1009.6
20260905211131 31 334 0.0 0.0 0.00 0.15 0.00 71 1009.6
20260905211030 30 334 0.0 0.0 0.00 0.15 0.00 71 1009.6
20260905210932 30 334 0.0 3.2 0.00 0.15 0.00 71 1009.6
20260905210831 30 334 0.0 3.2 0.00 0.15 0.00 71 1009.6
20260905210731 30 334 0.0 4.8 0.00 0.15 0.00 71 1009.7
20260905210631 30 334 0.0 4.8 0.00 0.15 0.00 71 1009.7
20260905210531 30 334 0.0 4.8 0.00 0.15 0.00 71 1009.7
20260905210431 30 334 0.0 4.8 0.00 0.15 0.00 71 1009.7
20260905210332 30 334 0.0 8.0 0.00 0.15 0.00 71 1009.8
20260905210234 30 334 0.0 9.7 0.00 0.15 0.00 72 1009.8
20260905210132 30 333 1.6 9.7 0.00 0.15 0.00 72 1009.8
20260905210029 30 333 1.6 14.5 0.00 0.15 0.00 72 1009.8
20260905205929 30 333 3.2 16.1 0.00 0.15 0.00 72 1009.8
20260905205829 30 333 3.2 16.1 0.00 0.15 0.00 73 1009.8
20260905205729 30 333 1.6 16.1 0.00 0.15 0.00 73 1009.9
20260905205629 30 333 3.2 16.1 0.00 0.15 0.00 73 1009.9
20260905205529 30 333 4.8 16.1 0.00 0.15 0.00 73 1009.8
20260905205428 29 331 6.4 16.1 0.00 0.15 0.00 73 1009.8
20260905205330 29 323 6.4 16.1 0.00 0.15 0.00 74 1010.0
20260905205228 29 305 8.0 16.1 0.00 0.15 0.00 74 1009.9
20260905205128 29 290 9.7 16.1 0.00 0.15 0.00 74 1010.0
20260905205028 29 299 8.0 16.1 0.00 0.15 0.00 75 1009.9
20260905204928 29 298 8.0 20.9 0.00 0.15 0.00 74 1010.0
20260905204829 29 288 9.7 22.5 0.00 0.15 0.00 74 1010.0
20260905204728 29 290 11.3 27.4 0.00 0.15 0.00 74 1009.9
20260905204630 29 298 11.3 29.0 0.00 0.15 0.00 74 1009.9
20260905204528 29 290 11.3 29.0 0.00 0.15 0.00 74 1009.8
20260905204430 29 292 9.7 29.0 0.00 0.15 0.00 74 1009.8
20260905204329 29 330 9.7 29.0 0.00 0.15 0.00 75 1009.9
20260905204228 29 305 9.7 29.0 0.00 0.15 0.00 75 1009.8
20260905204128 29 289 12.9 29.0 0.00 0.15 0.00 74 1009.8
20260905204028 29 271 17.7 29.0 0.00 0.15 0.00 74 1009.8
20260905203928 29 293 20.9 29.0 0.00 0.15 0.00 74 1009.8
20260905203830 29 300 20.9 29.0 0.00 0.15 0.00 74 1009.8
20260905203729 29 307 17.7 29.0 0.00 0.15 0.00 74 1009.8
20260905203629 30 307 16.1 25.7 0.00 0.15 0.00 73 1009.9
20260905203530 30 298 9.7 20.9 0.00 0.15 0.00 73 1009.9
20260905203428 30 306 6.4 14.5 0.00 0.15 0.00 73 1009.9
20260905203328 30 309 6.4 14.5 0.00 0.15 0.00 73 1009.9
20260905203229 30 300 8.0 16.1 0.00 0.15 0.00 73 1010.0
20260905203128 30 300 6.4 16.1 0.00 0.15 0.00 73 1009.9
20260905203028 30 324 3.2 16.1 0.00 0.15 0.00 74 1009.9
20260905202929 30 258 4.8 16.1 0.00 0.15 0.00 73 1010.0
20260905202828 31 257 6.4 16.1 0.00 0.15 0.00 73 1010.0
20260905202728 31 319 6.4 16.1 0.00 0.15 0.00 72 1010.0
20260905202630 31 309 6.4 16.1 0.00 0.15 0.00 72 1010.0
20260905202529 31 285 6.4 16.1 0.00 0.15 0.00 71 1010.1
20260905202427 32 290 9.7 16.1 0.00 0.15 0.00 70 1010.1
20260905202328 32 290 6.4 16.1 0.00 0.15 0.00 67 1010.1
20260905202229 32 276 4.8 16.1 0.00 0.15 0.00 67 1010.1
20260905202129 32 237 4.8 16.1 0.00 0.15 0.00 67 1010.0
20260905202028 32 162 4.8 16.1 0.00 0.15 0.00 67 1010.0
20260905201927 32 171 3.2 16.1 0.00 0.15 0.00 67 1010.0
20260905201829 32 169 4.8 16.1 0.00 0.15 0.00 67 1009.9
20260905201728 32 199 8.0 16.1 0.00 0.15 0.00 67 1010.0
20260905201628 32 111 9.7 16.1 0.00 0.15 0.00 67 1010.0
20260905201527 32 111 9.7 16.1 0.00 0.15 0.00 67 1009.9
20260905201427 32 66 9.7 16.1 0.00 0.15 0.00 67 1009.9
20260905201326 32 117 9.7 16.1 0.00 0.15 0.00 67 1010.0
20260905201225 32 107 9.7 16.1 0.00 0.15 0.00 67 1009.9
20260905201123 32 113 9.7 17.7 0.00 0.15 0.00 67 1009.9
20260905201022 32 109 8.0 17.7 0.00 0.15 0.00 68 1009.9
20260905200920 32 94 6.4 17.7 0.00 0.15 0.00 68 1009.9
20260905200818 32 102 6.4 17.7 0.00 0.15 0.00 68 1009.9
20260905200717 32 86 4.8 17.7 0.00 0.15 0.00 67 1009.9
20260905200614 32 165 6.4 17.7 0.00 0.15 0.00 67 1009.9
20260905200513 32 120 6.4 17.7 0.00 0.15 0.00 68 1009.9
20260905200412 32 179 8.0 17.7 0.00 0.15 0.00 68 1010.0
20260905200311 32 90 9.7 17.7 0.00 0.15 0.00 68 1010.0
20260905200209 32 99 9.7 17.7 0.00 0.15 0.00 67 1010.0
20260905200107 32 110 9.7 17.7 0.00 0.15 0.00 67 1010.0
20260905200006 32 121 9.7 17.7 0.00 0.15 0.00 67 1010.0
20260905195903 32 113 9.7 16.1 0.00 0.15 0.00 67 1010.0
20260905195804 33 85 9.7 16.1 0.00 0.15 0.00 67 1010.0
20260905195702 33 96 9.7 16.1 0.00 0.15 0.00 66 1010.0
20260905195602 33 92 12.9 16.1 0.00 0.15 0.00 66 1010.0
20260905195503 33 93 4.8 11.3 0.00 0.15 0.00 64 1010.0
20260905195404 33 93 4.8 11.3 0.00 0.15 0.00 64 1010.0
20260905195306 33 106 3.2 11.3 0.00 0.15 0.00 64 1010.0
20260905195203 33 86 4.8 11.3 0.00 0.15 0.00 64 1009.9
20260905195104 33 85 4.8 11.3 0.00 0.15 0.00 63 1009.9
20260905195002 33 86 8.0 11.3 0.00 0.15 0.00 63 1010.0
20260905194903 33 100 6.4 11.3 0.00 0.15 0.00 63 1009.9
20260905194804 33 63 3.2 11.3 0.00 0.15 0.00 63 1009.9
20260905194702 33 224 3.2 11.3 0.00 0.15 0.00 64 1010.0
20260905194603 33 224 3.2 11.3 0.00 0.15 0.00 63 1010.0
20260905194503 33 166 4.8 11.3 0.00 0.15 0.00 64 1010.0
20260905194402 33 168 4.8 17.7 0.00 0.15 0.00 64 1010.0
20260905194302 33 124 6.4 17.7 0.00 0.15 0.00 63 1010.0
20260905194202 33 121 8.0 17.7 0.00 0.15 0.00 64 1010.0
20260905194103 33 100 4.8 17.7 0.00 0.15 0.00 63 1010.0
20260905194003 33 117 4.8 17.7 0.00 0.15 0.00 64 1010.0
20260905193903 33 179 8.0 17.7 0.00 0.15 0.00 64 1010.0
20260905193802 33 188 6.4 17.7 0.00 0.15 0.00 64 1010.0
20260905193703 33 158 4.8 17.7 0.00 0.15 0.00 64 1010.0
20260905193602 33 127 8.0 17.7 0.00 0.15 0.00 64 1010.1
20260905193505 33 100 9.7 17.7 0.00 0.15 0.00 64 1010.1
20260905193403 33 131 9.7 17.7 0.00 0.15 0.00 64 1010.0
20260905193303 33 104 12.9 20.9 0.00 0.15 0.00 63 1010.1
20260905193202 33 99 9.7 20.9 0.00 0.15 0.00 63 1010.0
20260905193103 34 121 6.4 20.9 0.00 0.15 0.00 63 1010.0
20260905193004 34 178 6.4 20.9 0.00 0.15 0.00 63 1009.9
20260905192903 34 148 4.8 20.9 0.00 0.15 0.00 63 1010.0
20260905192803 34 94 4.8 20.9 0.00 0.15 0.00 64 1010.0
20260905192703 33 116 4.8 20.9 0.00 0.15 0.00 63 1010.0
20260905192602 33 78 3.2 20.9 0.00 0.15 0.00 64 1010.0
20260905192502 33 72 8.0 20.9 0.00 0.15 0.00 63 1010.1
20260905192404 33 72 12.9 20.9 0.00 0.15 0.00 64 1010.2
20260905192306 33 92 9.7 17.7 0.00 0.15 0.00 65 1010.1
20260905192202 33 92 6.4 14.5 0.00 0.15 0.00 65 1010.2
20260905192102 33 140 6.4 14.5 0.00 0.15 0.00 65 1010.2
20260905192005 33 92 6.4 9.7 0.00 0.15 0.00 65 1010.3
20260905191902 33 154 6.4 11.3 0.00 0.15 0.00 65 1010.3
20260905191803 33 196 6.4 20.9 0.00 0.15 0.00 64 1010.3
20260905191703 33 116 6.4 20.9 0.00 0.15 0.00 65 1010.3
20260905191602 33 118 4.8 20.9 0.00 0.15 0.00 64 1010.3
20260905191502 33 113 4.8 20.9 0.00 0.15 0.00 66 1010.3
20260905191403 33 94 4.8 20.9 0.00 0.15 0.00 66 1010.3
20260905191302 33 121 4.8 20.9 0.00 0.15 0.00 66 1010.3
20260905191203 33 87 4.8 20.9 0.00 0.15 0.00 65 1010.4
20260905191103 33 155 6.4 20.9 0.00 0.15 0.00 65 1010.3
20260905191005 33 202 9.7 20.9 0.00 0.15 0.00 64 1010.4
20260905190903 33 209 9.7 20.9 0.00 0.15 0.00 64 1010.3
20260905190802 33 220 9.7 20.9 0.00 0.15 0.00 65 1010.3
20260905190703 33 120 9.7 17.7 0.00 0.15 0.00 65 1010.3
20260905190602 34 103 9.7 17.7 0.00 0.15 0.00 63 1010.4
20260905190502 34 96 9.7 17.7 0.00 0.15 0.00 63 1010.4
20260905190403 35 94 6.4 19.3 0.00 0.15 0.00 63 1010.4
20260905190302 35 138 8.0 20.9 0.00 0.15 0.00 62 1010.4
20260905190202 35 173 8.0 20.9 0.00 0.15 0.00 63 1010.5
20260905190005 35 175 8.0 20.9 0.00 0.15 0.00 64 1010.4
20260905185903 34 282 4.8 20.9 0.00 0.15 0.00 63 1010.5
20260905185803 34 16 3.2 20.9 0.00 0.15 0.00 63 1010.5
20260905185702 34 72 6.4 20.9 0.00 0.15 0.00 63 1010.5
20260905185602 34 71 9.7 20.9 0.00 0.15 0.00 62 1010.5
20260905185503 34 82 12.9 20.9 0.00 0.15 0.00 61 1010.5
20260905185403 35 85 9.7 20.9 0.00 0.15 0.00 61 1010.5
20260905185305 35 72 6.4 16.1 0.00 0.15 0.00 59 1010.6
20260905185203 35 120 4.8 16.1 0.00 0.15 0.00 58 1010.6
20260905185103 35 127 6.4 16.1 0.00 0.15 0.00 58 1010.7
20260905185003 35 118 6.4 16.1 0.00 0.15 0.00 59 1010.5
20260905184903 35 107 4.8 16.1 0.00 0.15 0.00 58 1010.5
20260905184802 35 110 3.2 16.1 0.00 0.15 0.00 58 1010.6
20260905184702 35 234 6.4 16.1 0.00 0.15 0.00 58 1010.5
20260905184603 35 63 6.4 16.1 0.00 0.15 0.00 58 1010.6
20260905184502 35 80 6.4 9.7 0.00 0.15 0.00 58 1010.7
20260905184403 35 97 4.8 9.7 0.00 0.15 0.00 58 1010.6
20260905184303 35 117 6.4 9.7 0.00 0.15 0.00 56 1010.6
20260905184203 35 96 4.8 9.7 0.00 0.15 0.00 57 1010.7
20260905184102 35 82 6.4 9.7 0.00 0.15 0.00 56 1010.7
20260905184003 35 79 4.8 9.7 0.00 0.15 0.00 56 1010.6
20260905183902 35 78 3.2 8.0 0.00 0.15 0.00 55 1010.7
20260905183803 35 72 3.2 8.0 0.00 0.15 0.00 55 1010.7
20260905183703 35 89 4.8 9.7 0.00 0.15 0.00 55 1010.8
20260905183603 35 125 4.8 14.5 0.00 0.15 0.00 54 1010.7
20260905183504 35 65 4.8 14.5 0.00 0.15 0.00 53 1010.7
20260905183404 36 110 3.2 14.5 0.00 0.15 0.00 54 1010.8
20260905183303 35 140 3.2 14.5 0.00 0.15 0.00 55 1010.7
20260905183203 35 176 3.2 14.5 0.00 0.15 0.00 56 1010.8
20260905183102 35 165 4.8 14.5 0.00 0.15 0.00 56 1010.8
20260905183002 35 180 3.2 14.5 0.00 0.15 0.00 56 1010.8
20260905182902 35 240 4.8 14.5 0.00 0.15 0.00 55 1010.8
20260905182803 35 265 9.7 14.5 0.00 0.15 0.00 56 1010.9
20260905182702 35 245 8.0 14.5 0.00 0.15 0.00 56 1010.9
20260905182602 36 230 3.2 9.7 0.00 0.15 0.00 55 1010.9
20260905182502 36 124 3.2 8.0 0.00 0.15 0.00 54 1010.9
20260905182403 36 104 4.8 8.0 0.00 0.15 0.00 53 1011.0
20260905182305 36 147 4.8 8.0 0.00 0.15 0.00 54 1011.0
20260905182201 36 124 3.2 8.0 0.00 0.15 0.00 55 1011.0
20260905182103 35 262 1.6 8.0 0.00 0.15 0.00 55 1011.0
20260905182003 35 262 1.6 8.0 0.00 0.15 0.00 55 1011.0
20260905181903 35 262 1.6 8.0 0.00 0.15 0.00 55 1011.0
20260905181803 35 262 1.6 8.0 0.00 0.15 0.00 55 1011.1
20260905181702 35 142 1.6 8.0 0.00 0.15 0.00 54 1011.1
20260905181603 35 175 3.2 8.0 0.00 0.15 0.00 54 1011.1
20260905181504 35 175 3.2 8.0 0.00 0.15 0.00 55 1011.2
20260905181403 35 228 3.2 8.0 0.00 0.15 0.00 56 1011.2
20260905181303 35 279 4.8 8.0 0.00 0.15 0.00 57 1011.2
20260905181203 35 259 3.2 8.0 0.00 0.15 0.00 57 1011.3
20260905181102 35 231 3.2 8.0 0.00 0.15 0.00 57 1011.3
20260905181002 35 45 3.2 8.0 0.00 0.15 0.00 57 1011.2
20260905180902 35 39 3.2 8.0 0.00 0.15 0.00 58 1011.3
20260905180803 35 71 4.8 8.0 0.00 0.15 0.00 58 1011.3
20260905180702 35 73 6.4 8.0 0.00 0.15 0.00 57 1011.3
20260905180602 35 82 4.8 8.0 0.00 0.15 0.00 58 1011.3
20260905180504 35 48 4.8 6.4 0.00 0.15 0.00 58 1011.3
20260905180403 35 68 3.2 6.4 0.00 0.15 0.00 59 1011.4
20260905180301 35 56 3.2 6.4 0.00 0.15 0.00 59 1011.4
20260905180203 35 56 3.2 6.4 0.00 0.15 0.00 60 1011.3
20260905180003 34 56 4.8 6.4 0.00 0.15 0.00 60 1011.4
20260905175903 34 56 4.8 6.4 0.00 0.15 0.00 59 1011.5
20260905175803 34 73 4.8 8.0 0.00 0.15 0.00 58 1011.5
20260905175701 34 80 4.8 8.0 0.00 0.15 0.00 59 1011.5
20260905175603 35 103 3.2 8.0 0.00 0.15 0.00 59 1011.5
20260905175502 35 25 1.6 9.7 0.00 0.15 0.00 59 1011.5
20260905175404 35 25 3.2 9.7 0.00 0.15 0.00 59 1011.5
20260905175306 35 24 3.2 9.7 0.00 0.15 0.00 59 1011.5
20260905175203 35 24 4.8 9.7 0.00 0.15 0.00 60 1011.6
20260905175104 35 24 3.2 9.7 0.00 0.15 0.00 60 1011.5
20260905175003 35 11 3.2 9.7 0.00 0.15 0.00 60 1011.6
20260905174902 35 11 3.2 9.7 0.00 0.15 0.00 60 1011.6
20260905174803 35 0 4.8 9.7 0.00 0.15 0.00 60 1011.6
20260905174702 35 0 6.4 9.7 0.00 0.15 0.00 61 1011.6
20260905174602 35 20 6.4 9.7 0.00 0.15 0.00 61 1011.7
20260905174503 35 21 4.8 9.7 0.00 0.15 0.00 61 1011.6
20260905174404 35 39 3.2 9.7 0.00 0.15 0.00 62 1011.7
20260905174304 34 13 4.8 9.7 0.00 0.15 0.00 61 1011.7
20260905174202 35 13 6.4 9.7 0.00 0.15 0.00 61 1011.7
20260905174103 34 344 6.4 9.7 0.00 0.15 0.00 62 1011.7
20260905174004 34 17 4.8 8.0 0.00 0.15 0.00 63 1011.7
20260905173902 34 0 4.8 8.0 0.00 0.15 0.00 63 1011.8
20260905173805 34 358 4.8 8.0 0.00 0.15 0.00 63 1011.9
20260905173702 34 331 4.8 8.0 0.00 0.15 0.00 63 1011.8
20260905173601 33 329 3.2 8.0 0.00 0.15 0.00 65 1011.8
20260905173503 33 347 3.2 8.0 0.00 0.15 0.00 64 1011.9
20260905173403 33 345 3.2 8.0 0.00 0.15 0.00 65 1011.8
20260905173302 33 345 4.8 8.0 0.00 0.15 0.00 64 1011.9
20260905173202 33 345 4.8 8.0 0.00 0.15 0.00 65 1011.9
20260905173103 33 347 4.8 8.0 0.00 0.15 0.00 65 1011.9
20260905173003 33 337 3.2 6.4 0.00 0.15 0.00 66 1011.9
20260905172902 33 1 1.6 4.8 0.00 0.15 0.00 65 1011.9
20260905172802 32 44 3.2 4.8 0.00 0.15 0.00 64 1011.9
20260905172702 32 44 3.2 4.8 0.00 0.15 0.00 65 1012.0
20260905172602 32 55 3.2 4.8 0.00 0.15 0.00 63 1011.9
20260905172502 32 55 1.6 6.4 0.00 0.15 0.00 62 1012.0
20260905172403 32 55 3.2 6.4 0.00 0.15 0.00 62 1012.0
20260905172305 32 55 3.2 6.4 0.00 0.15 0.00 62 1012.0
20260905172200 32 55 1.6 6.4 0.00 0.15 0.00 62 1012.0
20260905172059 32 55 1.6 6.4 0.00 0.15 0.00 64 1012.0
20260905171957 32 55 1.6 6.4 0.00 0.15 0.00 65 1012.0
20260905171856 32 45 1.6 6.4 0.00 0.15 0.00 64 1012.0
20260905171753 32 45 1.6 8.0 0.00 0.15 0.00 64 1012.0
20260905171651 32 45 3.2 8.0 0.00 0.15 0.00 63 1012.0
20260905171552 32 45 4.8 8.0 0.00 0.15 0.00 63 1012.0
20260905171449 32 44 3.2 8.0 0.00 0.15 0.00 63 1012.0
20260905171347 33 44 1.6 8.0 0.00 0.15 0.00 63 1012.0
20260905171247 33 44 1.6 8.0 0.00 0.15 0.00 63 1012.1
20260905171145 33 44 3.2 9.7 0.00 0.15 0.00 62 1012.1
20260905171043 33 44 3.2 9.7 0.00 0.15 0.00 62 1012.1
20260905170942 33 44 4.8 9.7 0.00 0.15 0.00 61 1012.1
20260905170841 34 44 3.2 9.7 0.00 0.15 0.00 60 1012.1
20260905170736 34 32 1.6 9.7 0.00 0.15 0.00 59 1012.2
20260905170633 34 4 3.2 9.7 0.00 0.15 0.00 58 1012.2
20260905170532 34 3 3.2 9.7 0.00 0.15 0.00 59 1012.2
20260905170430 34 3 4.8 9.7 0.00 0.15 0.00 59 1012.1
20260905170332 34 1 6.4 9.7 0.00 0.15 0.00 59 1012.1
20260905170228 34 6 6.4 9.7 0.00 0.15 0.00 59 1012.1
20260905170126 34 350 6.4 8.0 0.00 0.15 0.00 59 1012.1
20260905170026 34 340 4.8 8.0 0.00 0.15 0.00 61 1012.1
20260905165923 33 6 6.4 9.7 0.00 0.15 0.00 62 1012.1
20260905165823 33 18 4.8 9.7 0.00 0.15 0.00 62 1012.2
20260905165724 33 0 3.2 9.7 0.00 0.15 0.00 63 1012.1
20260905165624 33 347 1.6 9.7 0.00 0.15 0.00 65 1012.2
20260905165523 33 334 1.6 9.7 0.00 0.15 0.00 65 1012.2
20260905165424 33 334 3.2 9.7 0.00 0.15 0.00 64 1012.1
20260905165324 33 306 3.2 9.7 0.00 0.15 0.00 64 1012.2
20260905165223 33 306 3.2 9.7 0.00 0.15 0.00 64 1012.2
20260905165122 33 306 6.4 9.7 0.00 0.15 0.00 65 1012.2
20260905165025 33 307 8.0 9.7 0.00 0.15 0.00 65 1012.2
20260905164923 33 314 4.8 9.7 0.00 0.15 0.00 64 1012.2
20260905164823 33 330 3.2 6.4 0.00 0.15 0.00 63 1012.2
20260905164724 33 299 3.2 6.4 0.00 0.15 0.00 64 1012.2
20260905164624 33 337 1.6 6.4 0.00 0.15 0.00 65 1012.2
20260905164525 33 337 1.6 6.4 0.00 0.15 0.00 64 1012.2
20260905164424 33 314 3.2 6.4 0.00 0.15 0.00 63 1012.2
20260905164324 33 314 3.2 6.4 0.00 0.15 0.00 64 1012.2
20260905164223 32 314 3.2 6.4 0.00 0.15 0.00 64 1012.2
20260905164123 32 314 4.8 6.4 0.00 0.15 0.00 62 1012.2
20260905164024 33 316 4.8 6.4 0.00 0.15 0.00 63 1012.2
20260905163923 33 316 3.2 8.0 0.00 0.15 0.00 63 1012.2
20260905163823 33 319 0.0 8.0 0.00 0.15 0.00 62 1012.3
20260905163723 33 319 1.6 8.0 0.00 0.15 0.00 63 1012.2
20260905163624 33 319 3.2 8.0 0.00 0.15 0.00 64 1012.3
20260905163523 33 319 3.2 8.0 0.00 0.15 0.00 64 1012.3
20260905163423 33 319 3.2 8.0 0.00 0.15 0.00 65 1012.3
20260905163323 33 319 3.2 8.0 0.00 0.15 0.00 64 1012.3
20260905163223 33 317 3.2 8.0 0.00 0.15 0.00 64 1012.3
20260905163123 33 317 4.8 9.7 0.00 0.15 0.00 64 1012.3
20260905163022 33 317 4.8 9.7 0.00 0.15 0.00 63 1012.3
20260905162922 33 313 3.2 9.7 0.00 0.15 0.00 63 1012.3
20260905162823 33 331 3.2 9.7 0.00 0.15 0.00 63 1012.3
20260905162722 33 331 3.2 9.7 0.00 0.15 0.00 61 1012.3
20260905162624 33 331 3.2 9.7 0.00 0.15 0.00 61 1012.4
20260905162523 33 331 4.8 9.7 0.00 0.15 0.00 63 1012.3
20260905162423 33 331 4.8 9.7 0.00 0.15 0.00 64 1012.3
20260905162323 33 320 4.8 9.7 0.00 0.15 0.00 63 1012.3
20260905162223 33 326 4.8 9.7 0.00 0.15 0.00 65 1012.3
20260905162123 33 324 4.8 8.0 0.00 0.15 0.00 65 1012.3
20260905162022 33 326 4.8 8.0 0.00 0.15 0.00 64 1012.4
20260905161924 33 327 4.8 8.0 0.00 0.15 0.00 65 1012.3
20260905161823 33 313 4.8 8.0 0.00 0.15 0.00 67 1012.3
20260905161722 33 0 3.2 8.0 0.00 0.15 0.00 67 1012.3
20260905161623 33 6 3.2 8.0 0.00 0.15 0.00 67 1012.3
20260905161523 33 6 3.2 8.0 0.00 0.15 0.00 67 1012.3
20260905161422 33 6 3.2 8.0 0.00 0.15 0.00 67 1012.3
20260905161322 33 348 3.2 8.0 0.00 0.15 0.00 67 1012.3
20260905161224 33 347 3.2 8.0 0.00 0.15 0.00 68 1012.3
20260905161122 32 345 3.2 8.0 0.00 0.15 0.00 68 1012.3
20260905161024 32 345 3.2 8.0 0.00 0.15 0.00 68 1012.4
20260905160925 32 345 4.8 8.0 0.00 0.15 0.00 68 1012.4
20260905160822 32 0 4.8 8.0 0.00 0.15 0.00 69 1012.3
20260905160722 32 0 4.8 8.0 0.00 0.15 0.00 68 1012.3
20260905160622 32 0 4.8 8.0 0.00 0.15 0.00 68 1012.4
20260905160525 32 0 6.4 8.0 0.00 0.15 0.00 68 1012.4
20260905160421 32 345 6.4 8.0 0.00 0.15 0.00 69 1012.3
20260905160322 32 345 4.8 6.4 0.00 0.15 0.00 69 1012.3
20260905160223 32 324 3.2 6.4 0.00 0.15 0.00 69 1012.3
20260905160122 32 321 1.6 8.0 0.00 0.15 0.00 69 1012.3
20260905160022 32 313 1.6 8.0 0.00 0.15 0.00 69 1012.3
20260905155923 32 258 1.6 8.0 0.00 0.15 0.00 70 1012.3
20260905155822 32 258 1.6 8.0 0.00 0.15 0.00 71 1012.3
20260905155722 32 210 1.6 8.0 0.00 0.15 0.00 71 1012.3
20260905155621 32 124 3.2 9.7 0.00 0.15 0.00 72 1012.3
20260905155521 32 127 3.2 9.7 0.00 0.15 0.00 72 1012.3
20260905155422 32 165 4.8 9.7 0.00 0.15 0.00 72 1012.3
20260905155321 32 193 4.8 9.7 0.00 0.15 0.00 72 1012.3
20260905155221 32 227 6.4 9.7 0.00 0.15 0.00 72 1012.3
20260905155123 32 250 6.4 9.7 0.00 0.15 0.00 73 1012.3
20260905155021 31 238 6.4 9.7 0.00 0.15 0.00 74 1012.3
20260905154921 31 240 6.4 9.7 0.00 0.15 0.00 73 1012.4
20260905154822 31 200 6.4 9.7 0.00 0.15 0.00 73 1012.3
20260905154722 31 257 8.0 9.7 0.00 0.15 0.00 74 1012.3
20260905154621 31 250 8.0 9.7 0.00 0.15 0.00 75 1012.3
20260905154522 31 235 8.0 8.0 0.00 0.15 0.00 75 1012.3
20260905154422 31 251 4.8 6.4 0.00 0.15 0.00 75 1012.3
20260905154323 31 251 4.8 6.4 0.00 0.15 0.00 75 1012.3
20260905154222 31 251 4.8 6.4 0.00 0.15 0.00 75 1012.3
20260905154122 31 261 4.8 8.0 0.00 0.15 0.00 75 1012.3
20260905154022 31 265 4.8 8.0 0.00 0.15 0.00 76 1012.4
20260905153921 31 266 4.8 8.0 0.00 0.15 0.00 75 1012.5
20260905153821 31 282 1.6 8.0 0.00 0.15 0.00 77 1012.5
20260905153722 31 298 1.6 8.0 0.00 0.15 0.00 77 1012.5
20260905153622 31 298 0.0 8.0 0.00 0.15 0.00 77 1012.5
20260905153521 31 298 0.0 8.0 0.00 0.15 0.00 78 1012.5
20260905153423 31 298 1.6 8.0 0.00 0.15 0.00 78 1012.6
20260905153321 31 298 3.2 8.0 0.00 0.15 0.00 78 1012.5
20260905153222 31 298 4.8 8.0 0.00 0.15 0.00 78 1012.6
20260905153123 31 309 4.8 8.0 0.00 0.15 0.00 78 1012.5
20260905153021 31 309 4.8 8.0 0.00 0.15 0.00 78 1012.5
20260905152921 31 310 4.8 8.0 0.00 0.15 0.00 78 1012.5
20260905152821 31 312 4.8 8.0 0.00 0.15 0.00 78 1012.5
20260905152723 31 312 4.8 8.0 0.00 0.15 0.00 77 1012.5
20260905152621 31 313 3.2 8.0 0.00 0.15 0.00 78 1012.4
20260905152521 31 313 4.8 8.0 0.00 0.15 0.00 78 1012.5
20260905152423 31 313 4.8 8.0 0.00 0.15 0.00 79 1012.5
20260905152321 31 320 4.8 8.0 0.00 0.15 0.00 78 1012.4
20260905152221 31 317 6.4 8.0 0.00 0.15 0.00 79 1012.4
20260905152120 31 317 4.8 6.4 0.00 0.15 0.00 79 1012.4
20260905152023 31 347 4.8 6.4 0.00 0.15 0.00 79 1012.4
20260905151921 31 347 4.8 6.4 0.00 0.15 0.00 79 1012.4